<?xml version="1.0" encoding="utf-8"?>
<gpx xmlns:xsi="http://www.w3.org/2001/XMLSchema-instance" xmlns:xsd="http://www.w3.org/2001/XMLSchema" version="1.1" creator="Shapelink.com" xmlns="http://www.topografix.com/GPX/1/1" xmlns:gpxtpx="http://www.garmin.com/xmlschemas/TrackPointExtension/v1">
  <metadata>
    <name>Löpning 10.26 km, 2012-11-06</name>
    <desc></desc>
    <author><name>Kim Kronberg</name></author> 
    <time>1970-01-01T01:00:00Z</time>
  </metadata>
  <trk>
    <name>Löpning 10.26 km, 2012-11-06</name>
    <trkseg>
      <trkpt lat="60.478078" lon="22.266589">
        <ele>28.125</ele>
        <time>1970-01-01T01:00:00Z</time>
      </trkpt>
      <trkpt lat="60.478071" lon="22.266642">
        <ele>28.8889</ele>
        <time>1970-01-01T01:00:00Z</time>
      </trkpt>
      <trkpt lat="60.478061" lon="22.266702">
        <ele>29.5</ele>
        <time>1970-01-01T01:00:00Z</time>
      </trkpt>
      <trkpt lat="60.478016" lon="22.266892">
        <ele>30</ele>
        <time>1970-01-01T01:00:00Z</time>
      </trkpt>
      <trkpt lat="60.477985" lon="22.267">
        <ele>31</ele>
        <time>1970-01-01T01:00:00Z</time>
      </trkpt>
      <trkpt lat="60.477959" lon="22.267133">
        <ele>32</ele>
        <time>1970-01-01T01:00:00Z</time>
      </trkpt>
      <trkpt lat="60.477945" lon="22.26719">
        <ele>33</ele>
        <time>1970-01-01T01:00:00Z</time>
      </trkpt>
      <trkpt lat="60.477932" lon="22.267252">
        <ele>34</ele>
        <time>1970-01-01T01:00:00Z</time>
      </trkpt>
      <trkpt lat="60.477914" lon="22.267384">
        <ele>35</ele>
        <time>1970-01-01T01:00:00Z</time>
      </trkpt>
      <trkpt lat="60.477902" lon="22.267448">
        <ele>35</ele>
        <time>1970-01-01T01:00:00Z</time>
      </trkpt>
      <trkpt lat="60.477873" lon="22.267683">
        <ele>35</ele>
        <time>1970-01-01T01:00:00Z</time>
      </trkpt>
      <trkpt lat="60.477843" lon="22.267857">
        <ele>35</ele>
        <time>1970-01-01T01:00:00Z</time>
      </trkpt>
      <trkpt lat="60.477833" lon="22.267907">
        <ele>35</ele>
        <time>1970-01-01T01:00:00Z</time>
      </trkpt>
      <trkpt lat="60.477824" lon="22.267954">
        <ele>35</ele>
        <time>1970-01-01T01:00:00Z</time>
      </trkpt>
      <trkpt lat="60.477741" lon="22.268024">
        <ele>35</ele>
        <time>1970-01-01T01:00:00Z</time>
      </trkpt>
      <trkpt lat="60.477691" lon="22.26801">
        <ele>35</ele>
        <time>1970-01-01T01:00:00Z</time>
      </trkpt>
      <trkpt lat="60.477593" lon="22.267904">
        <ele>35</ele>
        <time>1970-01-01T01:00:00Z</time>
      </trkpt>
      <trkpt lat="60.477455" lon="22.2678">
        <ele>35</ele>
        <time>1970-01-01T01:00:00Z</time>
      </trkpt>
      <trkpt lat="60.477421" lon="22.267791">
        <ele>35</ele>
        <time>1970-01-01T01:00:00Z</time>
      </trkpt>
      <trkpt lat="60.477239" lon="22.267679">
        <ele>35</ele>
        <time>1970-01-01T01:00:00Z</time>
      </trkpt>
      <trkpt lat="60.4771" lon="22.267616">
        <ele>35</ele>
        <time>1970-01-01T01:00:00Z</time>
      </trkpt>
      <trkpt lat="60.476934" lon="22.267511">
        <ele>35</ele>
        <time>1970-01-01T01:00:00Z</time>
      </trkpt>
      <trkpt lat="60.476869" lon="22.267442">
        <ele>35</ele>
        <time>1970-01-01T01:00:00Z</time>
      </trkpt>
      <trkpt lat="60.4768" lon="22.267403">
        <ele>35</ele>
        <time>1970-01-01T01:00:00Z</time>
      </trkpt>
      <trkpt lat="60.47669" lon="22.267369">
        <ele>34</ele>
        <time>1970-01-01T01:00:00Z</time>
      </trkpt>
      <trkpt lat="60.476561" lon="22.267256">
        <ele>33</ele>
        <time>1970-01-01T01:00:00Z</time>
      </trkpt>
      <trkpt lat="60.476472" lon="22.267137">
        <ele>32</ele>
        <time>1970-01-01T01:00:00Z</time>
      </trkpt>
      <trkpt lat="60.476351" lon="22.267057">
        <ele>31</ele>
        <time>1970-01-01T01:00:00Z</time>
      </trkpt>
      <trkpt lat="60.476264" lon="22.266949">
        <ele>30</ele>
        <time>1970-01-01T01:00:00Z</time>
      </trkpt>
      <trkpt lat="60.476061" lon="22.266762">
        <ele>29</ele>
        <time>1970-01-01T01:00:00Z</time>
      </trkpt>
      <trkpt lat="60.475962" lon="22.266662">
        <ele>28</ele>
        <time>1970-01-01T01:00:00Z</time>
      </trkpt>
      <trkpt lat="60.475797" lon="22.266471">
        <ele>26</ele>
        <time>1970-01-01T01:00:00Z</time>
      </trkpt>
      <trkpt lat="60.475689" lon="22.26633">
        <ele>25</ele>
        <time>1970-01-01T01:00:00Z</time>
      </trkpt>
      <trkpt lat="60.475665" lon="22.266291">
        <ele>24</ele>
        <time>1970-01-01T01:00:00Z</time>
      </trkpt>
      <trkpt lat="60.475545" lon="22.266195">
        <ele>24</ele>
        <time>1970-01-01T01:00:00Z</time>
      </trkpt>
      <trkpt lat="60.475463" lon="22.265957">
        <ele>24</ele>
        <time>1970-01-01T01:00:00Z</time>
      </trkpt>
      <trkpt lat="60.475477" lon="22.265726">
        <ele>24</ele>
        <time>1970-01-01T01:00:00Z</time>
      </trkpt>
      <trkpt lat="60.475523" lon="22.265456">
        <ele>24</ele>
        <time>1970-01-01T01:00:00Z</time>
      </trkpt>
      <trkpt lat="60.47561" lon="22.265054">
        <ele>24</ele>
        <time>1970-01-01T01:00:00Z</time>
      </trkpt>
      <trkpt lat="60.475715" lon="22.264701">
        <ele>24</ele>
        <time>1970-01-01T01:00:00Z</time>
      </trkpt>
      <trkpt lat="60.475798" lon="22.264375">
        <ele>24</ele>
        <time>1970-01-01T01:00:00Z</time>
      </trkpt>
      <trkpt lat="60.475836" lon="22.264193">
        <ele>24</ele>
        <time>1970-01-01T01:00:00Z</time>
      </trkpt>
      <trkpt lat="60.475878" lon="22.263967">
        <ele>24</ele>
        <time>1970-01-01T01:00:00Z</time>
      </trkpt>
      <trkpt lat="60.475958" lon="22.263638">
        <ele>24</ele>
        <time>1970-01-01T01:00:00Z</time>
      </trkpt>
      <trkpt lat="60.476023" lon="22.263359">
        <ele>24</ele>
        <time>1970-01-01T01:00:00Z</time>
      </trkpt>
      <trkpt lat="60.47607" lon="22.26313">
        <ele>24</ele>
        <time>1970-01-01T01:00:00Z</time>
      </trkpt>
      <trkpt lat="60.476085" lon="22.263028">
        <ele>24</ele>
        <time>1970-01-01T01:00:00Z</time>
      </trkpt>
      <trkpt lat="60.476151" lon="22.262631">
        <ele>24</ele>
        <time>1970-01-01T01:00:00Z</time>
      </trkpt>
      <trkpt lat="60.476189" lon="22.262373">
        <ele>24</ele>
        <time>1970-01-01T01:00:00Z</time>
      </trkpt>
      <trkpt lat="60.476239" lon="22.26205">
        <ele>24</ele>
        <time>1970-01-01T01:00:00Z</time>
      </trkpt>
      <trkpt lat="60.476282" lon="22.261753">
        <ele>24</ele>
        <time>1970-01-01T01:00:00Z</time>
      </trkpt>
      <trkpt lat="60.476325" lon="22.261517">
        <ele>24</ele>
        <time>1970-01-01T01:00:00Z</time>
      </trkpt>
      <trkpt lat="60.476376" lon="22.261214">
        <ele>24</ele>
        <time>1970-01-01T01:00:00Z</time>
      </trkpt>
      <trkpt lat="60.476411" lon="22.260954">
        <ele>24</ele>
        <time>1970-01-01T01:00:00Z</time>
      </trkpt>
      <trkpt lat="60.476444" lon="22.260692">
        <ele>24</ele>
        <time>1970-01-01T01:00:00Z</time>
      </trkpt>
      <trkpt lat="60.476476" lon="22.260478">
        <ele>24</ele>
        <time>1970-01-01T01:00:00Z</time>
      </trkpt>
      <trkpt lat="60.476508" lon="22.260228">
        <ele>24</ele>
        <time>1970-01-01T01:00:00Z</time>
      </trkpt>
      <trkpt lat="60.476555" lon="22.259913">
        <ele>24.0909</ele>
        <time>1970-01-01T01:00:00Z</time>
      </trkpt>
      <trkpt lat="60.47655" lon="22.259581">
        <ele>24.1818</ele>
        <time>1970-01-01T01:00:00Z</time>
      </trkpt>
      <trkpt lat="60.476574" lon="22.259266">
        <ele>24.2727</ele>
        <time>1970-01-01T01:00:00Z</time>
      </trkpt>
      <trkpt lat="60.476607" lon="22.25896">
        <ele>24.3636</ele>
        <time>1970-01-01T01:00:00Z</time>
      </trkpt>
      <trkpt lat="60.476647" lon="22.258596">
        <ele>24.4545</ele>
        <time>1970-01-01T01:00:00Z</time>
      </trkpt>
      <trkpt lat="60.476675" lon="22.258295">
        <ele>24.5455</ele>
        <time>1970-01-01T01:00:00Z</time>
      </trkpt>
      <trkpt lat="60.476684" lon="22.258235">
        <ele>24.6364</ele>
        <time>1970-01-01T01:00:00Z</time>
      </trkpt>
      <trkpt lat="60.476706" lon="22.258026">
        <ele>24.7273</ele>
        <time>1970-01-01T01:00:00Z</time>
      </trkpt>
      <trkpt lat="60.476746" lon="22.257829">
        <ele>24.8182</ele>
        <time>1970-01-01T01:00:00Z</time>
      </trkpt>
      <trkpt lat="60.476785" lon="22.257513">
        <ele>24.9091</ele>
        <time>1970-01-01T01:00:00Z</time>
      </trkpt>
      <trkpt lat="60.476818" lon="22.257276">
        <ele>25</ele>
        <time>1970-01-01T01:00:00Z</time>
      </trkpt>
      <trkpt lat="60.476853" lon="22.257047">
        <ele>25</ele>
        <time>1970-01-01T01:00:00Z</time>
      </trkpt>
      <trkpt lat="60.476877" lon="22.256723">
        <ele>25</ele>
        <time>1970-01-01T01:00:00Z</time>
      </trkpt>
      <trkpt lat="60.476899" lon="22.256618">
        <ele>25</ele>
        <time>1970-01-01T01:00:00Z</time>
      </trkpt>
      <trkpt lat="60.477048" lon="22.256426">
        <ele>25</ele>
        <time>1970-01-01T01:00:00Z</time>
      </trkpt>
      <trkpt lat="60.477196" lon="22.25636">
        <ele>25</ele>
        <time>1970-01-01T01:00:00Z</time>
      </trkpt>
      <trkpt lat="60.477339" lon="22.256278">
        <ele>25</ele>
        <time>1970-01-01T01:00:00Z</time>
      </trkpt>
      <trkpt lat="60.477469" lon="22.256154">
        <ele>25</ele>
        <time>1970-01-01T01:00:00Z</time>
      </trkpt>
      <trkpt lat="60.477627" lon="22.255945">
        <ele>25</ele>
        <time>1970-01-01T01:00:00Z</time>
      </trkpt>
      <trkpt lat="60.477768" lon="22.255787">
        <ele>25</ele>
        <time>1970-01-01T01:00:00Z</time>
      </trkpt>
      <trkpt lat="60.477891" lon="22.255684">
        <ele>25</ele>
        <time>1970-01-01T01:00:00Z</time>
      </trkpt>
      <trkpt lat="60.478064" lon="22.255534">
        <ele>25</ele>
        <time>1970-01-01T01:00:00Z</time>
      </trkpt>
      <trkpt lat="60.47824" lon="22.255393">
        <ele>25</ele>
        <time>1970-01-01T01:00:00Z</time>
      </trkpt>
      <trkpt lat="60.478444" lon="22.255236">
        <ele>25</ele>
        <time>1970-01-01T01:00:00Z</time>
      </trkpt>
      <trkpt lat="60.478585" lon="22.255086">
        <ele>25</ele>
        <time>1970-01-01T01:00:00Z</time>
      </trkpt>
      <trkpt lat="60.478729" lon="22.254926">
        <ele>25</ele>
        <time>1970-01-01T01:00:00Z</time>
      </trkpt>
      <trkpt lat="60.478883" lon="22.254818">
        <ele>25</ele>
        <time>1970-01-01T01:00:00Z</time>
      </trkpt>
      <trkpt lat="60.478986" lon="22.254736">
        <ele>25</ele>
        <time>1970-01-01T01:00:00Z</time>
      </trkpt>
      <trkpt lat="60.479092" lon="22.254669">
        <ele>25</ele>
        <time>1970-01-01T01:00:00Z</time>
      </trkpt>
      <trkpt lat="60.479146" lon="22.254619">
        <ele>25</ele>
        <time>1970-01-01T01:00:00Z</time>
      </trkpt>
      <trkpt lat="60.479268" lon="22.254568">
        <ele>25</ele>
        <time>1970-01-01T01:00:00Z</time>
      </trkpt>
      <trkpt lat="60.479474" lon="22.254368">
        <ele>25</ele>
        <time>1970-01-01T01:00:00Z</time>
      </trkpt>
      <trkpt lat="60.479637" lon="22.254249">
        <ele>25</ele>
        <time>1970-01-01T01:00:00Z</time>
      </trkpt>
      <trkpt lat="60.479779" lon="22.254131">
        <ele>25</ele>
        <time>1970-01-01T01:00:00Z</time>
      </trkpt>
      <trkpt lat="60.47992" lon="22.254008">
        <ele>25</ele>
        <time>1970-01-01T01:00:00Z</time>
      </trkpt>
      <trkpt lat="60.480038" lon="22.253866">
        <ele>25</ele>
        <time>1970-01-01T01:00:00Z</time>
      </trkpt>
      <trkpt lat="60.48007" lon="22.253803">
        <ele>25</ele>
        <time>1970-01-01T01:00:00Z</time>
      </trkpt>
      <trkpt lat="60.4802" lon="22.253638">
        <ele>25</ele>
        <time>1970-01-01T01:00:00Z</time>
      </trkpt>
      <trkpt lat="60.480318" lon="22.25352">
        <ele>25</ele>
        <time>1970-01-01T01:00:00Z</time>
      </trkpt>
      <trkpt lat="60.480376" lon="22.25348">
        <ele>25</ele>
        <time>1970-01-01T01:00:00Z</time>
      </trkpt>
      <trkpt lat="60.480563" lon="22.253329">
        <ele>25</ele>
        <time>1970-01-01T01:00:00Z</time>
      </trkpt>
      <trkpt lat="60.480743" lon="22.253179">
        <ele>25</ele>
        <time>1970-01-01T01:00:00Z</time>
      </trkpt>
      <trkpt lat="60.480856" lon="22.253126">
        <ele>25</ele>
        <time>1970-01-01T01:00:00Z</time>
      </trkpt>
      <trkpt lat="60.480958" lon="22.253261">
        <ele>25</ele>
        <time>1970-01-01T01:00:00Z</time>
      </trkpt>
      <trkpt lat="60.481109" lon="22.253422">
        <ele>25</ele>
        <time>1970-01-01T01:00:00Z</time>
      </trkpt>
      <trkpt lat="60.481217" lon="22.253537">
        <ele>25</ele>
        <time>1970-01-01T01:00:00Z</time>
      </trkpt>
      <trkpt lat="60.481342" lon="22.253724">
        <ele>25</ele>
        <time>1970-01-01T01:00:00Z</time>
      </trkpt>
      <trkpt lat="60.481453" lon="22.253958">
        <ele>25</ele>
        <time>1970-01-01T01:00:00Z</time>
      </trkpt>
      <trkpt lat="60.481541" lon="22.254161">
        <ele>25</ele>
        <time>1970-01-01T01:00:00Z</time>
      </trkpt>
      <trkpt lat="60.481598" lon="22.254384">
        <ele>25</ele>
        <time>1970-01-01T01:00:00Z</time>
      </trkpt>
      <trkpt lat="60.481558" lon="22.254601">
        <ele>25</ele>
        <time>1970-01-01T01:00:00Z</time>
      </trkpt>
      <trkpt lat="60.481433" lon="22.254678">
        <ele>25</ele>
        <time>1970-01-01T01:00:00Z</time>
      </trkpt>
      <trkpt lat="60.481289" lon="22.254799">
        <ele>25</ele>
        <time>1970-01-01T01:00:00Z</time>
      </trkpt>
      <trkpt lat="60.481118" lon="22.254977">
        <ele>25</ele>
        <time>1970-01-01T01:00:00Z</time>
      </trkpt>
      <trkpt lat="60.481013" lon="22.255043">
        <ele>25</ele>
        <time>1970-01-01T01:00:00Z</time>
      </trkpt>
      <trkpt lat="60.480948" lon="22.255218">
        <ele>25</ele>
        <time>1970-01-01T01:00:00Z</time>
      </trkpt>
      <trkpt lat="60.480931" lon="22.255482">
        <ele>25</ele>
        <time>1970-01-01T01:00:00Z</time>
      </trkpt>
      <trkpt lat="60.48092" lon="22.255862">
        <ele>25</ele>
        <time>1970-01-01T01:00:00Z</time>
      </trkpt>
      <trkpt lat="60.4809" lon="22.256069">
        <ele>25</ele>
        <time>1970-01-01T01:00:00Z</time>
      </trkpt>
      <trkpt lat="60.480941" lon="22.256276">
        <ele>25</ele>
        <time>1970-01-01T01:00:00Z</time>
      </trkpt>
      <trkpt lat="60.480973" lon="22.256427">
        <ele>25</ele>
        <time>1970-01-01T01:00:00Z</time>
      </trkpt>
      <trkpt lat="60.481021" lon="22.25655">
        <ele>25</ele>
        <time>1970-01-01T01:00:00Z</time>
      </trkpt>
      <trkpt lat="60.481157" lon="22.256822">
        <ele>25</ele>
        <time>1970-01-01T01:00:00Z</time>
      </trkpt>
      <trkpt lat="60.48122" lon="22.25709">
        <ele>25</ele>
        <time>1970-01-01T01:00:00Z</time>
      </trkpt>
      <trkpt lat="60.481241" lon="22.257325">
        <ele>24.9091</ele>
        <time>1970-01-01T01:00:00Z</time>
      </trkpt>
      <trkpt lat="60.481233" lon="22.257562">
        <ele>24.8182</ele>
        <time>1970-01-01T01:00:00Z</time>
      </trkpt>
      <trkpt lat="60.481237" lon="22.257591">
        <ele>24.7273</ele>
        <time>1970-01-01T01:00:00Z</time>
      </trkpt>
      <trkpt lat="60.481169" lon="22.257957">
        <ele>24.6364</ele>
        <time>1970-01-01T01:00:00Z</time>
      </trkpt>
      <trkpt lat="60.481102" lon="22.25826">
        <ele>24.5455</ele>
        <time>1970-01-01T01:00:00Z</time>
      </trkpt>
      <trkpt lat="60.481093" lon="22.258561">
        <ele>24.4545</ele>
        <time>1970-01-01T01:00:00Z</time>
      </trkpt>
      <trkpt lat="60.481131" lon="22.258884">
        <ele>24.3636</ele>
        <time>1970-01-01T01:00:00Z</time>
      </trkpt>
      <trkpt lat="60.481186" lon="22.259129">
        <ele>24.2727</ele>
        <time>1970-01-01T01:00:00Z</time>
      </trkpt>
      <trkpt lat="60.481286" lon="22.259334">
        <ele>24.1818</ele>
        <time>1970-01-01T01:00:00Z</time>
      </trkpt>
      <trkpt lat="60.481295" lon="22.2594">
        <ele>24.0909</ele>
        <time>1970-01-01T01:00:00Z</time>
      </trkpt>
      <trkpt lat="60.481336" lon="22.259773">
        <ele>24</ele>
        <time>1970-01-01T01:00:00Z</time>
      </trkpt>
      <trkpt lat="60.481374" lon="22.260148">
        <ele>24</ele>
        <time>1970-01-01T01:00:00Z</time>
      </trkpt>
      <trkpt lat="60.481336" lon="22.260486">
        <ele>24</ele>
        <time>1970-01-01T01:00:00Z</time>
      </trkpt>
      <trkpt lat="60.481394" lon="22.260791">
        <ele>24</ele>
        <time>1970-01-01T01:00:00Z</time>
      </trkpt>
      <trkpt lat="60.48148" lon="22.261097">
        <ele>24</ele>
        <time>1970-01-01T01:00:00Z</time>
      </trkpt>
      <trkpt lat="60.48156" lon="22.261305">
        <ele>24</ele>
        <time>1970-01-01T01:00:00Z</time>
      </trkpt>
      <trkpt lat="60.481633" lon="22.261543">
        <ele>24</ele>
        <time>1970-01-01T01:00:00Z</time>
      </trkpt>
      <trkpt lat="60.481699" lon="22.26186">
        <ele>24</ele>
        <time>1970-01-01T01:00:00Z</time>
      </trkpt>
      <trkpt lat="60.481749" lon="22.262185">
        <ele>24</ele>
        <time>1970-01-01T01:00:00Z</time>
      </trkpt>
      <trkpt lat="60.481802" lon="22.262434">
        <ele>24</ele>
        <time>1970-01-01T01:00:00Z</time>
      </trkpt>
      <trkpt lat="60.481813" lon="22.262672">
        <ele>24</ele>
        <time>1970-01-01T01:00:00Z</time>
      </trkpt>
      <trkpt lat="60.481863" lon="22.26284">
        <ele>24</ele>
        <time>1970-01-01T01:00:00Z</time>
      </trkpt>
      <trkpt lat="60.481998" lon="22.263059">
        <ele>24</ele>
        <time>1970-01-01T01:00:00Z</time>
      </trkpt>
      <trkpt lat="60.482102" lon="22.263218">
        <ele>24</ele>
        <time>1970-01-01T01:00:00Z</time>
      </trkpt>
      <trkpt lat="60.482214" lon="22.263353">
        <ele>24</ele>
        <time>1970-01-01T01:00:00Z</time>
      </trkpt>
      <trkpt lat="60.482311" lon="22.263506">
        <ele>24</ele>
        <time>1970-01-01T01:00:00Z</time>
      </trkpt>
      <trkpt lat="60.482409" lon="22.263605">
        <ele>24</ele>
        <time>1970-01-01T01:00:00Z</time>
      </trkpt>
      <trkpt lat="60.482536" lon="22.263686">
        <ele>24</ele>
        <time>1970-01-01T01:00:00Z</time>
      </trkpt>
      <trkpt lat="60.482629" lon="22.263739">
        <ele>24.3636</ele>
        <time>1970-01-01T01:00:00Z</time>
      </trkpt>
      <trkpt lat="60.482788" lon="22.263673">
        <ele>24.7273</ele>
        <time>1970-01-01T01:00:00Z</time>
      </trkpt>
      <trkpt lat="60.482942" lon="22.263535">
        <ele>25.0909</ele>
        <time>1970-01-01T01:00:00Z</time>
      </trkpt>
      <trkpt lat="60.483097" lon="22.263371">
        <ele>25.4545</ele>
        <time>1970-01-01T01:00:00Z</time>
      </trkpt>
      <trkpt lat="60.483228" lon="22.263306">
        <ele>25.8182</ele>
        <time>1970-01-01T01:00:00Z</time>
      </trkpt>
      <trkpt lat="60.483373" lon="22.263245">
        <ele>26.1818</ele>
        <time>1970-01-01T01:00:00Z</time>
      </trkpt>
      <trkpt lat="60.483497" lon="22.263227">
        <ele>26.5455</ele>
        <time>1970-01-01T01:00:00Z</time>
      </trkpt>
      <trkpt lat="60.483529" lon="22.26322">
        <ele>26.9091</ele>
        <time>1970-01-01T01:00:00Z</time>
      </trkpt>
      <trkpt lat="60.483634" lon="22.263128">
        <ele>27.2727</ele>
        <time>1970-01-01T01:00:00Z</time>
      </trkpt>
      <trkpt lat="60.483781" lon="22.263069">
        <ele>27.6364</ele>
        <time>1970-01-01T01:00:00Z</time>
      </trkpt>
      <trkpt lat="60.48391" lon="22.263001">
        <ele>28</ele>
        <time>1970-01-01T01:00:00Z</time>
      </trkpt>
      <trkpt lat="60.484038" lon="22.262926">
        <ele>28</ele>
        <time>1970-01-01T01:00:00Z</time>
      </trkpt>
      <trkpt lat="60.484129" lon="22.262924">
        <ele>28</ele>
        <time>1970-01-01T01:00:00Z</time>
      </trkpt>
      <trkpt lat="60.484198" lon="22.262917">
        <ele>28</ele>
        <time>1970-01-01T01:00:00Z</time>
      </trkpt>
      <trkpt lat="60.484342" lon="22.262856">
        <ele>28</ele>
        <time>1970-01-01T01:00:00Z</time>
      </trkpt>
      <trkpt lat="60.484476" lon="22.262839">
        <ele>28</ele>
        <time>1970-01-01T01:00:00Z</time>
      </trkpt>
      <trkpt lat="60.484593" lon="22.262818">
        <ele>28</ele>
        <time>1970-01-01T01:00:00Z</time>
      </trkpt>
      <trkpt lat="60.48475" lon="22.262807">
        <ele>28</ele>
        <time>1970-01-01T01:00:00Z</time>
      </trkpt>
      <trkpt lat="60.484859" lon="22.262788">
        <ele>28</ele>
        <time>1970-01-01T01:00:00Z</time>
      </trkpt>
      <trkpt lat="60.48498" lon="22.262747">
        <ele>28</ele>
        <time>1970-01-01T01:00:00Z</time>
      </trkpt>
      <trkpt lat="60.485159" lon="22.262649">
        <ele>28</ele>
        <time>1970-01-01T01:00:00Z</time>
      </trkpt>
      <trkpt lat="60.48528" lon="22.262478">
        <ele>28</ele>
        <time>1970-01-01T01:00:00Z</time>
      </trkpt>
      <trkpt lat="60.485345" lon="22.262293">
        <ele>28</ele>
        <time>1970-01-01T01:00:00Z</time>
      </trkpt>
      <trkpt lat="60.485343" lon="22.262008">
        <ele>28</ele>
        <time>1970-01-01T01:00:00Z</time>
      </trkpt>
      <trkpt lat="60.485317" lon="22.261759">
        <ele>28</ele>
        <time>1970-01-01T01:00:00Z</time>
      </trkpt>
      <trkpt lat="60.485267" lon="22.261441">
        <ele>28</ele>
        <time>1970-01-01T01:00:00Z</time>
      </trkpt>
      <trkpt lat="60.485243" lon="22.261144">
        <ele>28</ele>
        <time>1970-01-01T01:00:00Z</time>
      </trkpt>
      <trkpt lat="60.485199" lon="22.260843">
        <ele>28</ele>
        <time>1970-01-01T01:00:00Z</time>
      </trkpt>
      <trkpt lat="60.48516" lon="22.260567">
        <ele>28</ele>
        <time>1970-01-01T01:00:00Z</time>
      </trkpt>
      <trkpt lat="60.48514" lon="22.260306">
        <ele>28</ele>
        <time>1970-01-01T01:00:00Z</time>
      </trkpt>
      <trkpt lat="60.48513" lon="22.260236">
        <ele>28</ele>
        <time>1970-01-01T01:00:00Z</time>
      </trkpt>
      <trkpt lat="60.485107" lon="22.259949">
        <ele>28</ele>
        <time>1970-01-01T01:00:00Z</time>
      </trkpt>
      <trkpt lat="60.485034" lon="22.259608">
        <ele>28</ele>
        <time>1970-01-01T01:00:00Z</time>
      </trkpt>
      <trkpt lat="60.484984" lon="22.25946">
        <ele>28.4545</ele>
        <time>1970-01-01T01:00:00Z</time>
      </trkpt>
      <trkpt lat="60.484965" lon="22.259326">
        <ele>28.9091</ele>
        <time>1970-01-01T01:00:00Z</time>
      </trkpt>
      <trkpt lat="60.484972" lon="22.259269">
        <ele>29.3636</ele>
        <time>1970-01-01T01:00:00Z</time>
      </trkpt>
      <trkpt lat="60.48502" lon="22.258898">
        <ele>29.8182</ele>
        <time>1970-01-01T01:00:00Z</time>
      </trkpt>
      <trkpt lat="60.484992" lon="22.258626">
        <ele>30.2727</ele>
        <time>1970-01-01T01:00:00Z</time>
      </trkpt>
      <trkpt lat="60.484971" lon="22.258426">
        <ele>30.7273</ele>
        <time>1970-01-01T01:00:00Z</time>
      </trkpt>
      <trkpt lat="60.484936" lon="22.258157">
        <ele>31.1818</ele>
        <time>1970-01-01T01:00:00Z</time>
      </trkpt>
      <trkpt lat="60.484907" lon="22.257981">
        <ele>31.6364</ele>
        <time>1970-01-01T01:00:00Z</time>
      </trkpt>
      <trkpt lat="60.484934" lon="22.257959">
        <ele>32.0909</ele>
        <time>1970-01-01T01:00:00Z</time>
      </trkpt>
      <trkpt lat="60.48492" lon="22.257906">
        <ele>33</ele>
        <time>1970-01-01T01:00:00Z</time>
      </trkpt>
      <trkpt lat="60.484889" lon="22.257628">
        <ele>33</ele>
        <time>1970-01-01T01:00:00Z</time>
      </trkpt>
      <trkpt lat="60.484809" lon="22.257347">
        <ele>33</ele>
        <time>1970-01-01T01:00:00Z</time>
      </trkpt>
      <trkpt lat="60.484757" lon="22.257208">
        <ele>33</ele>
        <time>1970-01-01T01:00:00Z</time>
      </trkpt>
      <trkpt lat="60.484648" lon="22.256943">
        <ele>33</ele>
        <time>1970-01-01T01:00:00Z</time>
      </trkpt>
      <trkpt lat="60.484617" lon="22.256665">
        <ele>33</ele>
        <time>1970-01-01T01:00:00Z</time>
      </trkpt>
      <trkpt lat="60.484587" lon="22.256531">
        <ele>33</ele>
        <time>1970-01-01T01:00:00Z</time>
      </trkpt>
      <trkpt lat="60.484535" lon="22.256309">
        <ele>33</ele>
        <time>1970-01-01T01:00:00Z</time>
      </trkpt>
      <trkpt lat="60.484504" lon="22.256202">
        <ele>33</ele>
        <time>1970-01-01T01:00:00Z</time>
      </trkpt>
      <trkpt lat="60.484398" lon="22.256041">
        <ele>33</ele>
        <time>1970-01-01T01:00:00Z</time>
      </trkpt>
      <trkpt lat="60.484295" lon="22.255895">
        <ele>33</ele>
        <time>1970-01-01T01:00:00Z</time>
      </trkpt>
      <trkpt lat="60.484257" lon="22.255806">
        <ele>33</ele>
        <time>1970-01-01T01:00:00Z</time>
      </trkpt>
      <trkpt lat="60.484129" lon="22.255625">
        <ele>33</ele>
        <time>1970-01-01T01:00:00Z</time>
      </trkpt>
      <trkpt lat="60.483982" lon="22.255487">
        <ele>33</ele>
        <time>1970-01-01T01:00:00Z</time>
      </trkpt>
      <trkpt lat="60.483899" lon="22.255394">
        <ele>33</ele>
        <time>1970-01-01T01:00:00Z</time>
      </trkpt>
      <trkpt lat="60.483761" lon="22.255206">
        <ele>33</ele>
        <time>1970-01-01T01:00:00Z</time>
      </trkpt>
      <trkpt lat="60.483698" lon="22.255065">
        <ele>33</ele>
        <time>1970-01-01T01:00:00Z</time>
      </trkpt>
      <trkpt lat="60.483689" lon="22.254805">
        <ele>33</ele>
        <time>1970-01-01T01:00:00Z</time>
      </trkpt>
      <trkpt lat="60.483693" lon="22.254535">
        <ele>32.2727</ele>
        <time>1970-01-01T01:00:00Z</time>
      </trkpt>
      <trkpt lat="60.483674" lon="22.254272">
        <ele>31.5455</ele>
        <time>1970-01-01T01:00:00Z</time>
      </trkpt>
      <trkpt lat="60.48365" lon="22.254224">
        <ele>30.8182</ele>
        <time>1970-01-01T01:00:00Z</time>
      </trkpt>
      <trkpt lat="60.48353" lon="22.254083">
        <ele>30.0909</ele>
        <time>1970-01-01T01:00:00Z</time>
      </trkpt>
      <trkpt lat="60.483412" lon="22.254175">
        <ele>29.3636</ele>
        <time>1970-01-01T01:00:00Z</time>
      </trkpt>
      <trkpt lat="60.483235" lon="22.25439">
        <ele>28.6364</ele>
        <time>1970-01-01T01:00:00Z</time>
      </trkpt>
      <trkpt lat="60.483114" lon="22.254497">
        <ele>27.9091</ele>
        <time>1970-01-01T01:00:00Z</time>
      </trkpt>
      <trkpt lat="60.483016" lon="22.254484">
        <ele>27.1818</ele>
        <time>1970-01-01T01:00:00Z</time>
      </trkpt>
      <trkpt lat="60.482965" lon="22.254504">
        <ele>26.4545</ele>
        <time>1970-01-01T01:00:00Z</time>
      </trkpt>
      <trkpt lat="60.482794" lon="22.254606">
        <ele>25.7273</ele>
        <time>1970-01-01T01:00:00Z</time>
      </trkpt>
      <trkpt lat="60.482759" lon="22.254641">
        <ele>25</ele>
        <time>1970-01-01T01:00:00Z</time>
      </trkpt>
      <trkpt lat="60.4826" lon="22.254658">
        <ele>25</ele>
        <time>1970-01-01T01:00:00Z</time>
      </trkpt>
      <trkpt lat="60.482429" lon="22.254644">
        <ele>25</ele>
        <time>1970-01-01T01:00:00Z</time>
      </trkpt>
      <trkpt lat="60.482267" lon="22.254656">
        <ele>25</ele>
        <time>1970-01-01T01:00:00Z</time>
      </trkpt>
      <trkpt lat="60.482104" lon="22.254762">
        <ele>25</ele>
        <time>1970-01-01T01:00:00Z</time>
      </trkpt>
      <trkpt lat="60.481973" lon="22.254773">
        <ele>25</ele>
        <time>1970-01-01T01:00:00Z</time>
      </trkpt>
      <trkpt lat="60.481854" lon="22.254715">
        <ele>25</ele>
        <time>1970-01-01T01:00:00Z</time>
      </trkpt>
      <trkpt lat="60.481828" lon="22.254692">
        <ele>25</ele>
        <time>1970-01-01T01:00:00Z</time>
      </trkpt>
      <trkpt lat="60.481715" lon="22.254585">
        <ele>25</ele>
        <time>1970-01-01T01:00:00Z</time>
      </trkpt>
      <trkpt lat="60.481576" lon="22.254468">
        <ele>25</ele>
        <time>1970-01-01T01:00:00Z</time>
      </trkpt>
      <trkpt lat="60.481482" lon="22.254278">
        <ele>25</ele>
        <time>1970-01-01T01:00:00Z</time>
      </trkpt>
      <trkpt lat="60.481338" lon="22.254091">
        <ele>25</ele>
        <time>1970-01-01T01:00:00Z</time>
      </trkpt>
      <trkpt lat="60.481303" lon="22.253827">
        <ele>25</ele>
        <time>1970-01-01T01:00:00Z</time>
      </trkpt>
      <trkpt lat="60.481333" lon="22.253492">
        <ele>25</ele>
        <time>1970-01-01T01:00:00Z</time>
      </trkpt>
      <trkpt lat="60.481398" lon="22.253269">
        <ele>25</ele>
        <time>1970-01-01T01:00:00Z</time>
      </trkpt>
      <trkpt lat="60.481554" lon="22.253007">
        <ele>25</ele>
        <time>1970-01-01T01:00:00Z</time>
      </trkpt>
      <trkpt lat="60.481649" lon="22.252779">
        <ele>25</ele>
        <time>1970-01-01T01:00:00Z</time>
      </trkpt>
      <trkpt lat="60.481712" lon="22.252467">
        <ele>25</ele>
        <time>1970-01-01T01:00:00Z</time>
      </trkpt>
      <trkpt lat="60.481734" lon="22.252417">
        <ele>25</ele>
        <time>1970-01-01T01:00:00Z</time>
      </trkpt>
      <trkpt lat="60.481859" lon="22.252311">
        <ele>25</ele>
        <time>1970-01-01T01:00:00Z</time>
      </trkpt>
      <trkpt lat="60.481903" lon="22.252256">
        <ele>25</ele>
        <time>1970-01-01T01:00:00Z</time>
      </trkpt>
      <trkpt lat="60.481942" lon="22.251964">
        <ele>25</ele>
        <time>1970-01-01T01:00:00Z</time>
      </trkpt>
      <trkpt lat="60.481933" lon="22.251821">
        <ele>25</ele>
        <time>1970-01-01T01:00:00Z</time>
      </trkpt>
      <trkpt lat="60.48182" lon="22.251523">
        <ele>25</ele>
        <time>1970-01-01T01:00:00Z</time>
      </trkpt>
      <trkpt lat="60.481774" lon="22.251332">
        <ele>25.8182</ele>
        <time>1970-01-01T01:00:00Z</time>
      </trkpt>
      <trkpt lat="60.481724" lon="22.251022">
        <ele>26.6364</ele>
        <time>1970-01-01T01:00:00Z</time>
      </trkpt>
      <trkpt lat="60.481683" lon="22.250751">
        <ele>27.4545</ele>
        <time>1970-01-01T01:00:00Z</time>
      </trkpt>
      <trkpt lat="60.481652" lon="22.25041">
        <ele>28.2727</ele>
        <time>1970-01-01T01:00:00Z</time>
      </trkpt>
      <trkpt lat="60.481634" lon="22.250103">
        <ele>29.0909</ele>
        <time>1970-01-01T01:00:00Z</time>
      </trkpt>
      <trkpt lat="60.481644" lon="22.249741">
        <ele>29.9091</ele>
        <time>1970-01-01T01:00:00Z</time>
      </trkpt>
      <trkpt lat="60.481644" lon="22.249503">
        <ele>30.7273</ele>
        <time>1970-01-01T01:00:00Z</time>
      </trkpt>
      <trkpt lat="60.481663" lon="22.249249">
        <ele>31.5455</ele>
        <time>1970-01-01T01:00:00Z</time>
      </trkpt>
      <trkpt lat="60.481655" lon="22.248925">
        <ele>32.3636</ele>
        <time>1970-01-01T01:00:00Z</time>
      </trkpt>
      <trkpt lat="60.481557" lon="22.248785">
        <ele>33.1818</ele>
        <time>1970-01-01T01:00:00Z</time>
      </trkpt>
      <trkpt lat="60.481391" lon="22.248775">
        <ele>34</ele>
        <time>1970-01-01T01:00:00Z</time>
      </trkpt>
      <trkpt lat="60.481273" lon="22.248845">
        <ele>34</ele>
        <time>1970-01-01T01:00:00Z</time>
      </trkpt>
      <trkpt lat="60.481159" lon="22.248951">
        <ele>34</ele>
        <time>1970-01-01T01:00:00Z</time>
      </trkpt>
      <trkpt lat="60.481004" lon="22.249146">
        <ele>34</ele>
        <time>1970-01-01T01:00:00Z</time>
      </trkpt>
      <trkpt lat="60.480899" lon="22.24929">
        <ele>34</ele>
        <time>1970-01-01T01:00:00Z</time>
      </trkpt>
      <trkpt lat="60.480772" lon="22.249495">
        <ele>33.1818</ele>
        <time>1970-01-01T01:00:00Z</time>
      </trkpt>
      <trkpt lat="60.480665" lon="22.249649">
        <ele>32.3636</ele>
        <time>1970-01-01T01:00:00Z</time>
      </trkpt>
      <trkpt lat="60.480546" lon="22.249802">
        <ele>31.5455</ele>
        <time>1970-01-01T01:00:00Z</time>
      </trkpt>
      <trkpt lat="60.480464" lon="22.24989">
        <ele>30.7273</ele>
        <time>1970-01-01T01:00:00Z</time>
      </trkpt>
      <trkpt lat="60.480298" lon="22.250058">
        <ele>29.9091</ele>
        <time>1970-01-01T01:00:00Z</time>
      </trkpt>
      <trkpt lat="60.480188" lon="22.250162">
        <ele>29.0909</ele>
        <time>1970-01-01T01:00:00Z</time>
      </trkpt>
      <trkpt lat="60.480074" lon="22.250266">
        <ele>28.2727</ele>
        <time>1970-01-01T01:00:00Z</time>
      </trkpt>
      <trkpt lat="60.479934" lon="22.250413">
        <ele>27.4545</ele>
        <time>1970-01-01T01:00:00Z</time>
      </trkpt>
      <trkpt lat="60.479889" lon="22.250453">
        <ele>26.6364</ele>
        <time>1970-01-01T01:00:00Z</time>
      </trkpt>
      <trkpt lat="60.479843" lon="22.250657">
        <ele>25.8182</ele>
        <time>1970-01-01T01:00:00Z</time>
      </trkpt>
      <trkpt lat="60.479864" lon="22.250978">
        <ele>25</ele>
        <time>1970-01-01T01:00:00Z</time>
      </trkpt>
      <trkpt lat="60.479851" lon="22.251212">
        <ele>25</ele>
        <time>1970-01-01T01:00:00Z</time>
      </trkpt>
      <trkpt lat="60.479829" lon="22.251447">
        <ele>25</ele>
        <time>1970-01-01T01:00:00Z</time>
      </trkpt>
      <trkpt lat="60.479809" lon="22.251797">
        <ele>25</ele>
        <time>1970-01-01T01:00:00Z</time>
      </trkpt>
      <trkpt lat="60.479826" lon="22.25205">
        <ele>25</ele>
        <time>1970-01-01T01:00:00Z</time>
      </trkpt>
      <trkpt lat="60.479837" lon="22.252109">
        <ele>25</ele>
        <time>1970-01-01T01:00:00Z</time>
      </trkpt>
      <trkpt lat="60.479896" lon="22.252333">
        <ele>25</ele>
        <time>1970-01-01T01:00:00Z</time>
      </trkpt>
      <trkpt lat="60.479936" lon="22.252592">
        <ele>25</ele>
        <time>1970-01-01T01:00:00Z</time>
      </trkpt>
      <trkpt lat="60.479997" lon="22.252969">
        <ele>25</ele>
        <time>1970-01-01T01:00:00Z</time>
      </trkpt>
      <trkpt lat="60.480024" lon="22.253304">
        <ele>25</ele>
        <time>1970-01-01T01:00:00Z</time>
      </trkpt>
      <trkpt lat="60.480026" lon="22.253377">
        <ele>25</ele>
        <time>1970-01-01T01:00:00Z</time>
      </trkpt>
      <trkpt lat="60.480117" lon="22.253709">
        <ele>25</ele>
        <time>1970-01-01T01:00:00Z</time>
      </trkpt>
      <trkpt lat="60.480146" lon="22.253717">
        <ele>25</ele>
        <time>1970-01-01T01:00:00Z</time>
      </trkpt>
      <trkpt lat="60.480293" lon="22.253591">
        <ele>25</ele>
        <time>1970-01-01T01:00:00Z</time>
      </trkpt>
      <trkpt lat="60.480485" lon="22.253409">
        <ele>25</ele>
        <time>1970-01-01T01:00:00Z</time>
      </trkpt>
      <trkpt lat="60.480631" lon="22.25328">
        <ele>25</ele>
        <time>1970-01-01T01:00:00Z</time>
      </trkpt>
      <trkpt lat="60.480763" lon="22.253229">
        <ele>25</ele>
        <time>1970-01-01T01:00:00Z</time>
      </trkpt>
      <trkpt lat="60.480871" lon="22.253299">
        <ele>25</ele>
        <time>1970-01-01T01:00:00Z</time>
      </trkpt>
      <trkpt lat="60.480992" lon="22.253443">
        <ele>25</ele>
        <time>1970-01-01T01:00:00Z</time>
      </trkpt>
      <trkpt lat="60.481086" lon="22.253525">
        <ele>25</ele>
        <time>1970-01-01T01:00:00Z</time>
      </trkpt>
      <trkpt lat="60.481168" lon="22.253593">
        <ele>25</ele>
        <time>1970-01-01T01:00:00Z</time>
      </trkpt>
      <trkpt lat="60.481291" lon="22.253779">
        <ele>25</ele>
        <time>1970-01-01T01:00:00Z</time>
      </trkpt>
      <trkpt lat="60.481427" lon="22.253969">
        <ele>25</ele>
        <time>1970-01-01T01:00:00Z</time>
      </trkpt>
      <trkpt lat="60.481531" lon="22.254195">
        <ele>25</ele>
        <time>1970-01-01T01:00:00Z</time>
      </trkpt>
      <trkpt lat="60.481584" lon="22.254494">
        <ele>25</ele>
        <time>1970-01-01T01:00:00Z</time>
      </trkpt>
      <trkpt lat="60.481586" lon="22.254542">
        <ele>25</ele>
        <time>1970-01-01T01:00:00Z</time>
      </trkpt>
      <trkpt lat="60.481493" lon="22.25458">
        <ele>25</ele>
        <time>1970-01-01T01:00:00Z</time>
      </trkpt>
      <trkpt lat="60.481329" lon="22.254741">
        <ele>25</ele>
        <time>1970-01-01T01:00:00Z</time>
      </trkpt>
      <trkpt lat="60.481102" lon="22.255008">
        <ele>25</ele>
        <time>1970-01-01T01:00:00Z</time>
      </trkpt>
      <trkpt lat="60.480882" lon="22.255277">
        <ele>25</ele>
        <time>1970-01-01T01:00:00Z</time>
      </trkpt>
      <trkpt lat="60.480818" lon="22.255354">
        <ele>25</ele>
        <time>1970-01-01T01:00:00Z</time>
      </trkpt>
      <trkpt lat="60.480805" lon="22.255455">
        <ele>25</ele>
        <time>1970-01-01T01:00:00Z</time>
      </trkpt>
      <trkpt lat="60.480798" lon="22.255609">
        <ele>25</ele>
        <time>1970-01-01T01:00:00Z</time>
      </trkpt>
      <trkpt lat="60.480799" lon="22.25572">
        <ele>25</ele>
        <time>1970-01-01T01:00:00Z</time>
      </trkpt>
      <trkpt lat="60.480804" lon="22.256106">
        <ele>25</ele>
        <time>1970-01-01T01:00:00Z</time>
      </trkpt>
      <trkpt lat="60.480847" lon="22.256246">
        <ele>25</ele>
        <time>1970-01-01T01:00:00Z</time>
      </trkpt>
      <trkpt lat="60.480977" lon="22.256398">
        <ele>25</ele>
        <time>1970-01-01T01:00:00Z</time>
      </trkpt>
      <trkpt lat="60.481022" lon="22.256486">
        <ele>25</ele>
        <time>1970-01-01T01:00:00Z</time>
      </trkpt>
      <trkpt lat="60.481155" lon="22.256743">
        <ele>25</ele>
        <time>1970-01-01T01:00:00Z</time>
      </trkpt>
      <trkpt lat="60.481194" lon="22.256818">
        <ele>25</ele>
        <time>1970-01-01T01:00:00Z</time>
      </trkpt>
      <trkpt lat="60.481234" lon="22.257126">
        <ele>24.9091</ele>
        <time>1970-01-01T01:00:00Z</time>
      </trkpt>
      <trkpt lat="60.481227" lon="22.257395">
        <ele>24.8182</ele>
        <time>1970-01-01T01:00:00Z</time>
      </trkpt>
      <trkpt lat="60.481218" lon="22.257576">
        <ele>24.7273</ele>
        <time>1970-01-01T01:00:00Z</time>
      </trkpt>
      <trkpt lat="60.481176" lon="22.257839">
        <ele>24.6364</ele>
        <time>1970-01-01T01:00:00Z</time>
      </trkpt>
      <trkpt lat="60.481093" lon="22.258155">
        <ele>24.5455</ele>
        <time>1970-01-01T01:00:00Z</time>
      </trkpt>
      <trkpt lat="60.481067" lon="22.258487">
        <ele>24.4545</ele>
        <time>1970-01-01T01:00:00Z</time>
      </trkpt>
      <trkpt lat="60.48105" lon="22.25879">
        <ele>24.3636</ele>
        <time>1970-01-01T01:00:00Z</time>
      </trkpt>
      <trkpt lat="60.481086" lon="22.259113">
        <ele>24.2727</ele>
        <time>1970-01-01T01:00:00Z</time>
      </trkpt>
      <trkpt lat="60.481096" lon="22.259409">
        <ele>24.1818</ele>
        <time>1970-01-01T01:00:00Z</time>
      </trkpt>
      <trkpt lat="60.481115" lon="22.259706">
        <ele>24.0909</ele>
        <time>1970-01-01T01:00:00Z</time>
      </trkpt>
      <trkpt lat="60.481136" lon="22.259985">
        <ele>24</ele>
        <time>1970-01-01T01:00:00Z</time>
      </trkpt>
      <trkpt lat="60.481175" lon="22.260238">
        <ele>24</ele>
        <time>1970-01-01T01:00:00Z</time>
      </trkpt>
      <trkpt lat="60.481249" lon="22.260528">
        <ele>24</ele>
        <time>1970-01-01T01:00:00Z</time>
      </trkpt>
      <trkpt lat="60.481273" lon="22.260801">
        <ele>24</ele>
        <time>1970-01-01T01:00:00Z</time>
      </trkpt>
      <trkpt lat="60.481307" lon="22.261054">
        <ele>24</ele>
        <time>1970-01-01T01:00:00Z</time>
      </trkpt>
      <trkpt lat="60.48136" lon="22.261295">
        <ele>24</ele>
        <time>1970-01-01T01:00:00Z</time>
      </trkpt>
      <trkpt lat="60.481405" lon="22.261553">
        <ele>24</ele>
        <time>1970-01-01T01:00:00Z</time>
      </trkpt>
      <trkpt lat="60.481463" lon="22.261905">
        <ele>24</ele>
        <time>1970-01-01T01:00:00Z</time>
      </trkpt>
      <trkpt lat="60.481543" lon="22.262232">
        <ele>24</ele>
        <time>1970-01-01T01:00:00Z</time>
      </trkpt>
      <trkpt lat="60.481645" lon="22.262518">
        <ele>24</ele>
        <time>1970-01-01T01:00:00Z</time>
      </trkpt>
      <trkpt lat="60.481734" lon="22.262809">
        <ele>24</ele>
        <time>1970-01-01T01:00:00Z</time>
      </trkpt>
      <trkpt lat="60.481837" lon="22.262946">
        <ele>24</ele>
        <time>1970-01-01T01:00:00Z</time>
      </trkpt>
      <trkpt lat="60.481955" lon="22.263058">
        <ele>24</ele>
        <time>1970-01-01T01:00:00Z</time>
      </trkpt>
      <trkpt lat="60.482057" lon="22.263182">
        <ele>24</ele>
        <time>1970-01-01T01:00:00Z</time>
      </trkpt>
      <trkpt lat="60.482144" lon="22.2633">
        <ele>24</ele>
        <time>1970-01-01T01:00:00Z</time>
      </trkpt>
      <trkpt lat="60.482202" lon="22.263373">
        <ele>24</ele>
        <time>1970-01-01T01:00:00Z</time>
      </trkpt>
      <trkpt lat="60.482228" lon="22.2634">
        <ele>24</ele>
        <time>1970-01-01T01:00:00Z</time>
      </trkpt>
      <trkpt lat="60.48237" lon="22.263562">
        <ele>24</ele>
        <time>1970-01-01T01:00:00Z</time>
      </trkpt>
      <trkpt lat="60.482486" lon="22.26366">
        <ele>24</ele>
        <time>1970-01-01T01:00:00Z</time>
      </trkpt>
      <trkpt lat="60.482649" lon="22.26375">
        <ele>24</ele>
        <time>1970-01-01T01:00:00Z</time>
      </trkpt>
      <trkpt lat="60.482772" lon="22.263763">
        <ele>24</ele>
        <time>1970-01-01T01:00:00Z</time>
      </trkpt>
      <trkpt lat="60.482843" lon="22.263727">
        <ele>24.3636</ele>
        <time>1970-01-01T01:00:00Z</time>
      </trkpt>
      <trkpt lat="60.482943" lon="22.263578">
        <ele>24.7273</ele>
        <time>1970-01-01T01:00:00Z</time>
      </trkpt>
      <trkpt lat="60.48306" lon="22.263423">
        <ele>25.0909</ele>
        <time>1970-01-01T01:00:00Z</time>
      </trkpt>
      <trkpt lat="60.483115" lon="22.263396">
        <ele>25.4545</ele>
        <time>1970-01-01T01:00:00Z</time>
      </trkpt>
      <trkpt lat="60.483219" lon="22.263372">
        <ele>25.8182</ele>
        <time>1970-01-01T01:00:00Z</time>
      </trkpt>
      <trkpt lat="60.483362" lon="22.263331">
        <ele>26.1818</ele>
        <time>1970-01-01T01:00:00Z</time>
      </trkpt>
      <trkpt lat="60.483561" lon="22.263237">
        <ele>26.5455</ele>
        <time>1970-01-01T01:00:00Z</time>
      </trkpt>
      <trkpt lat="60.483669" lon="22.263151">
        <ele>26.9091</ele>
        <time>1970-01-01T01:00:00Z</time>
      </trkpt>
      <trkpt lat="60.483796" lon="22.263067">
        <ele>27.2727</ele>
        <time>1970-01-01T01:00:00Z</time>
      </trkpt>
      <trkpt lat="60.483956" lon="22.262979">
        <ele>27.6364</ele>
        <time>1970-01-01T01:00:00Z</time>
      </trkpt>
      <trkpt lat="60.484015" lon="22.262946">
        <ele>28</ele>
        <time>1970-01-01T01:00:00Z</time>
      </trkpt>
      <trkpt lat="60.484143" lon="22.262937">
        <ele>28</ele>
        <time>1970-01-01T01:00:00Z</time>
      </trkpt>
      <trkpt lat="60.484311" lon="22.262885">
        <ele>28</ele>
        <time>1970-01-01T01:00:00Z</time>
      </trkpt>
      <trkpt lat="60.484491" lon="22.262842">
        <ele>28</ele>
        <time>1970-01-01T01:00:00Z</time>
      </trkpt>
      <trkpt lat="60.484629" lon="22.262858">
        <ele>28</ele>
        <time>1970-01-01T01:00:00Z</time>
      </trkpt>
      <trkpt lat="60.484791" lon="22.262862">
        <ele>28</ele>
        <time>1970-01-01T01:00:00Z</time>
      </trkpt>
      <trkpt lat="60.484931" lon="22.26282">
        <ele>28</ele>
        <time>1970-01-01T01:00:00Z</time>
      </trkpt>
      <trkpt lat="60.485074" lon="22.262736">
        <ele>28</ele>
        <time>1970-01-01T01:00:00Z</time>
      </trkpt>
      <trkpt lat="60.485239" lon="22.262598">
        <ele>28</ele>
        <time>1970-01-01T01:00:00Z</time>
      </trkpt>
      <trkpt lat="60.485365" lon="22.262371">
        <ele>28</ele>
        <time>1970-01-01T01:00:00Z</time>
      </trkpt>
      <trkpt lat="60.485331" lon="22.261926">
        <ele>28</ele>
        <time>1970-01-01T01:00:00Z</time>
      </trkpt>
      <trkpt lat="60.48529" lon="22.261549">
        <ele>28</ele>
        <time>1970-01-01T01:00:00Z</time>
      </trkpt>
      <trkpt lat="60.485256" lon="22.261257">
        <ele>28</ele>
        <time>1970-01-01T01:00:00Z</time>
      </trkpt>
      <trkpt lat="60.485237" lon="22.260886">
        <ele>28</ele>
        <time>1970-01-01T01:00:00Z</time>
      </trkpt>
      <trkpt lat="60.485218" lon="22.260671">
        <ele>28</ele>
        <time>1970-01-01T01:00:00Z</time>
      </trkpt>
      <trkpt lat="60.485176" lon="22.260405">
        <ele>28</ele>
        <time>1970-01-01T01:00:00Z</time>
      </trkpt>
      <trkpt lat="60.485144" lon="22.260134">
        <ele>28</ele>
        <time>1970-01-01T01:00:00Z</time>
      </trkpt>
      <trkpt lat="60.485108" lon="22.259841">
        <ele>28</ele>
        <time>1970-01-01T01:00:00Z</time>
      </trkpt>
      <trkpt lat="60.485083" lon="22.259591">
        <ele>28.4545</ele>
        <time>1970-01-01T01:00:00Z</time>
      </trkpt>
      <trkpt lat="60.485049" lon="22.25934">
        <ele>28.9091</ele>
        <time>1970-01-01T01:00:00Z</time>
      </trkpt>
      <trkpt lat="60.48502" lon="22.259056">
        <ele>29.3636</ele>
        <time>1970-01-01T01:00:00Z</time>
      </trkpt>
      <trkpt lat="60.485014" lon="22.258783">
        <ele>29.8182</ele>
        <time>1970-01-01T01:00:00Z</time>
      </trkpt>
      <trkpt lat="60.485018" lon="22.258604">
        <ele>30.2727</ele>
        <time>1970-01-01T01:00:00Z</time>
      </trkpt>
      <trkpt lat="60.484973" lon="22.258303">
        <ele>30.7273</ele>
        <time>1970-01-01T01:00:00Z</time>
      </trkpt>
      <trkpt lat="60.484943" lon="22.25806">
        <ele>31.1818</ele>
        <time>1970-01-01T01:00:00Z</time>
      </trkpt>
      <trkpt lat="60.484922" lon="22.25796">
        <ele>31.6364</ele>
        <time>1970-01-01T01:00:00Z</time>
      </trkpt>
      <trkpt lat="60.484942" lon="22.257928">
        <ele>32.0909</ele>
        <time>1970-01-01T01:00:00Z</time>
      </trkpt>
      <trkpt lat="60.484934" lon="22.25789">
        <ele>32.5455</ele>
        <time>1970-01-01T01:00:00Z</time>
      </trkpt>
      <trkpt lat="60.484924" lon="22.257839">
        <ele>33</ele>
        <time>1970-01-01T01:00:00Z</time>
      </trkpt>
      <trkpt lat="60.484915" lon="22.257787">
        <ele>33</ele>
        <time>1970-01-01T01:00:00Z</time>
      </trkpt>
      <trkpt lat="60.484868" lon="22.257407">
        <ele>33</ele>
        <time>1970-01-01T01:00:00Z</time>
      </trkpt>
      <trkpt lat="60.484791" lon="22.257035">
        <ele>33</ele>
        <time>1970-01-01T01:00:00Z</time>
      </trkpt>
      <trkpt lat="60.484722" lon="22.256753">
        <ele>33</ele>
        <time>1970-01-01T01:00:00Z</time>
      </trkpt>
      <trkpt lat="60.484629" lon="22.25644">
        <ele>33</ele>
        <time>1970-01-01T01:00:00Z</time>
      </trkpt>
      <trkpt lat="60.484491" lon="22.256125">
        <ele>33</ele>
        <time>1970-01-01T01:00:00Z</time>
      </trkpt>
      <trkpt lat="60.484405" lon="22.255955">
        <ele>33</ele>
        <time>1970-01-01T01:00:00Z</time>
      </trkpt>
      <trkpt lat="60.484305" lon="22.25581">
        <ele>33</ele>
        <time>1970-01-01T01:00:00Z</time>
      </trkpt>
      <trkpt lat="60.484172" lon="22.255611">
        <ele>33</ele>
        <time>1970-01-01T01:00:00Z</time>
      </trkpt>
      <trkpt lat="60.484074" lon="22.255433">
        <ele>33</ele>
        <time>1970-01-01T01:00:00Z</time>
      </trkpt>
      <trkpt lat="60.48393" lon="22.255254">
        <ele>33</ele>
        <time>1970-01-01T01:00:00Z</time>
      </trkpt>
      <trkpt lat="60.483853" lon="22.255">
        <ele>33</ele>
        <time>1970-01-01T01:00:00Z</time>
      </trkpt>
      <trkpt lat="60.483796" lon="22.254621">
        <ele>33</ele>
        <time>1970-01-01T01:00:00Z</time>
      </trkpt>
      <trkpt lat="60.483772" lon="22.254468">
        <ele>32.2727</ele>
        <time>1970-01-01T01:00:00Z</time>
      </trkpt>
      <trkpt lat="60.483677" lon="22.254167">
        <ele>31.5455</ele>
        <time>1970-01-01T01:00:00Z</time>
      </trkpt>
      <trkpt lat="60.483636" lon="22.254088">
        <ele>30.8182</ele>
        <time>1970-01-01T01:00:00Z</time>
      </trkpt>
      <trkpt lat="60.483495" lon="22.254046">
        <ele>30.0909</ele>
        <time>1970-01-01T01:00:00Z</time>
      </trkpt>
      <trkpt lat="60.483438" lon="22.254089">
        <ele>29.3636</ele>
        <time>1970-01-01T01:00:00Z</time>
      </trkpt>
      <trkpt lat="60.483268" lon="22.254331">
        <ele>28.6364</ele>
        <time>1970-01-01T01:00:00Z</time>
      </trkpt>
      <trkpt lat="60.483164" lon="22.254473">
        <ele>27.9091</ele>
        <time>1970-01-01T01:00:00Z</time>
      </trkpt>
      <trkpt lat="60.482982" lon="22.254533">
        <ele>27.1818</ele>
        <time>1970-01-01T01:00:00Z</time>
      </trkpt>
      <trkpt lat="60.482849" lon="22.254546">
        <ele>26.4545</ele>
        <time>1970-01-01T01:00:00Z</time>
      </trkpt>
      <trkpt lat="60.48275" lon="22.254566">
        <ele>25.7273</ele>
        <time>1970-01-01T01:00:00Z</time>
      </trkpt>
      <trkpt lat="60.48265" lon="22.254611">
        <ele>25</ele>
        <time>1970-01-01T01:00:00Z</time>
      </trkpt>
      <trkpt lat="60.482516" lon="22.254638">
        <ele>25</ele>
        <time>1970-01-01T01:00:00Z</time>
      </trkpt>
      <trkpt lat="60.482374" lon="22.254656">
        <ele>25</ele>
        <time>1970-01-01T01:00:00Z</time>
      </trkpt>
      <trkpt lat="60.482215" lon="22.254735">
        <ele>25</ele>
        <time>1970-01-01T01:00:00Z</time>
      </trkpt>
      <trkpt lat="60.482085" lon="22.254817">
        <ele>25</ele>
        <time>1970-01-01T01:00:00Z</time>
      </trkpt>
      <trkpt lat="60.48196" lon="22.254812">
        <ele>25</ele>
        <time>1970-01-01T01:00:00Z</time>
      </trkpt>
      <trkpt lat="60.481849" lon="22.254748">
        <ele>25</ele>
        <time>1970-01-01T01:00:00Z</time>
      </trkpt>
      <trkpt lat="60.481697" lon="22.254625">
        <ele>25</ele>
        <time>1970-01-01T01:00:00Z</time>
      </trkpt>
      <trkpt lat="60.481538" lon="22.254453">
        <ele>25</ele>
        <time>1970-01-01T01:00:00Z</time>
      </trkpt>
      <trkpt lat="60.481432" lon="22.254264">
        <ele>25</ele>
        <time>1970-01-01T01:00:00Z</time>
      </trkpt>
      <trkpt lat="60.481407" lon="22.254219">
        <ele>25</ele>
        <time>1970-01-01T01:00:00Z</time>
      </trkpt>
      <trkpt lat="60.481365" lon="22.253989">
        <ele>25</ele>
        <time>1970-01-01T01:00:00Z</time>
      </trkpt>
      <trkpt lat="60.48134" lon="22.253617">
        <ele>25</ele>
        <time>1970-01-01T01:00:00Z</time>
      </trkpt>
      <trkpt lat="60.481342" lon="22.253484">
        <ele>25</ele>
        <time>1970-01-01T01:00:00Z</time>
      </trkpt>
      <trkpt lat="60.48141" lon="22.253267">
        <ele>25</ele>
        <time>1970-01-01T01:00:00Z</time>
      </trkpt>
      <trkpt lat="60.481528" lon="22.252984">
        <ele>25</ele>
        <time>1970-01-01T01:00:00Z</time>
      </trkpt>
      <trkpt lat="60.481635" lon="22.252652">
        <ele>25</ele>
        <time>1970-01-01T01:00:00Z</time>
      </trkpt>
      <trkpt lat="60.481739" lon="22.252357">
        <ele>25</ele>
        <time>1970-01-01T01:00:00Z</time>
      </trkpt>
      <trkpt lat="60.481844" lon="22.252211">
        <ele>25</ele>
        <time>1970-01-01T01:00:00Z</time>
      </trkpt>
      <trkpt lat="60.48194" lon="22.252081">
        <ele>25</ele>
        <time>1970-01-01T01:00:00Z</time>
      </trkpt>
      <trkpt lat="60.481957" lon="22.251902">
        <ele>25</ele>
        <time>1970-01-01T01:00:00Z</time>
      </trkpt>
      <trkpt lat="60.481933" lon="22.251739">
        <ele>25</ele>
        <time>1970-01-01T01:00:00Z</time>
      </trkpt>
      <trkpt lat="60.481836" lon="22.251418">
        <ele>25</ele>
        <time>1970-01-01T01:00:00Z</time>
      </trkpt>
      <trkpt lat="60.481779" lon="22.251249">
        <ele>25.8182</ele>
        <time>1970-01-01T01:00:00Z</time>
      </trkpt>
      <trkpt lat="60.481729" lon="22.251013">
        <ele>26.6364</ele>
        <time>1970-01-01T01:00:00Z</time>
      </trkpt>
      <trkpt lat="60.481702" lon="22.250749">
        <ele>27.4545</ele>
        <time>1970-01-01T01:00:00Z</time>
      </trkpt>
      <trkpt lat="60.48166" lon="22.250413">
        <ele>28.2727</ele>
        <time>1970-01-01T01:00:00Z</time>
      </trkpt>
      <trkpt lat="60.481632" lon="22.250177">
        <ele>29.0909</ele>
        <time>1970-01-01T01:00:00Z</time>
      </trkpt>
      <trkpt lat="60.481644" lon="22.249902">
        <ele>29.9091</ele>
        <time>1970-01-01T01:00:00Z</time>
      </trkpt>
      <trkpt lat="60.481645" lon="22.249857">
        <ele>30.7273</ele>
        <time>1970-01-01T01:00:00Z</time>
      </trkpt>
      <trkpt lat="60.481642" lon="22.249702">
        <ele>31.5455</ele>
        <time>1970-01-01T01:00:00Z</time>
      </trkpt>
      <trkpt lat="60.481651" lon="22.249571">
        <ele>32.3636</ele>
        <time>1970-01-01T01:00:00Z</time>
      </trkpt>
      <trkpt lat="60.481635" lon="22.249252">
        <ele>33.1818</ele>
        <time>1970-01-01T01:00:00Z</time>
      </trkpt>
      <trkpt lat="60.481639" lon="22.248956">
        <ele>34</ele>
        <time>1970-01-01T01:00:00Z</time>
      </trkpt>
      <trkpt lat="60.48156" lon="22.248817">
        <ele>34</ele>
        <time>1970-01-01T01:00:00Z</time>
      </trkpt>
      <trkpt lat="60.481474" lon="22.248808">
        <ele>34</ele>
        <time>1970-01-01T01:00:00Z</time>
      </trkpt>
      <trkpt lat="60.481346" lon="22.248843">
        <ele>34</ele>
        <time>1970-01-01T01:00:00Z</time>
      </trkpt>
      <trkpt lat="60.481193" lon="22.248947">
        <ele>34</ele>
        <time>1970-01-01T01:00:00Z</time>
      </trkpt>
      <trkpt lat="60.481028" lon="22.2491">
        <ele>34</ele>
        <time>1970-01-01T01:00:00Z</time>
      </trkpt>
      <trkpt lat="60.480944" lon="22.249209">
        <ele>34</ele>
        <time>1970-01-01T01:00:00Z</time>
      </trkpt>
      <trkpt lat="60.480801" lon="22.249397">
        <ele>34</ele>
        <time>1970-01-01T01:00:00Z</time>
      </trkpt>
      <trkpt lat="60.480682" lon="22.249558">
        <ele>33.1818</ele>
        <time>1970-01-01T01:00:00Z</time>
      </trkpt>
      <trkpt lat="60.480548" lon="22.249747">
        <ele>32.3636</ele>
        <time>1970-01-01T01:00:00Z</time>
      </trkpt>
      <trkpt lat="60.480429" lon="22.249866">
        <ele>31.5455</ele>
        <time>1970-01-01T01:00:00Z</time>
      </trkpt>
      <trkpt lat="60.48031" lon="22.249982">
        <ele>30.7273</ele>
        <time>1970-01-01T01:00:00Z</time>
      </trkpt>
      <trkpt lat="60.48021" lon="22.250068">
        <ele>29.9091</ele>
        <time>1970-01-01T01:00:00Z</time>
      </trkpt>
      <trkpt lat="60.480108" lon="22.250154">
        <ele>29.0909</ele>
        <time>1970-01-01T01:00:00Z</time>
      </trkpt>
      <trkpt lat="60.479971" lon="22.25028">
        <ele>28.2727</ele>
        <time>1970-01-01T01:00:00Z</time>
      </trkpt>
      <trkpt lat="60.479816" lon="22.2505">
        <ele>27.4545</ele>
        <time>1970-01-01T01:00:00Z</time>
      </trkpt>
      <trkpt lat="60.479797" lon="22.25054">
        <ele>26.6364</ele>
        <time>1970-01-01T01:00:00Z</time>
      </trkpt>
      <trkpt lat="60.479806" lon="22.250805">
        <ele>25.8182</ele>
        <time>1970-01-01T01:00:00Z</time>
      </trkpt>
      <trkpt lat="60.479828" lon="22.250991">
        <ele>25</ele>
        <time>1970-01-01T01:00:00Z</time>
      </trkpt>
      <trkpt lat="60.479793" lon="22.251338">
        <ele>25</ele>
        <time>1970-01-01T01:00:00Z</time>
      </trkpt>
      <trkpt lat="60.479788" lon="22.251596">
        <ele>25</ele>
        <time>1970-01-01T01:00:00Z</time>
      </trkpt>
      <trkpt lat="60.47978" lon="22.25194">
        <ele>25</ele>
        <time>1970-01-01T01:00:00Z</time>
      </trkpt>
      <trkpt lat="60.47986" lon="22.252167">
        <ele>25</ele>
        <time>1970-01-01T01:00:00Z</time>
      </trkpt>
      <trkpt lat="60.479893" lon="22.252363">
        <ele>25</ele>
        <time>1970-01-01T01:00:00Z</time>
      </trkpt>
      <trkpt lat="60.479944" lon="22.252612">
        <ele>25</ele>
        <time>1970-01-01T01:00:00Z</time>
      </trkpt>
      <trkpt lat="60.479985" lon="22.252873">
        <ele>25</ele>
        <time>1970-01-01T01:00:00Z</time>
      </trkpt>
      <trkpt lat="60.480002" lon="22.252991">
        <ele>25</ele>
        <time>1970-01-01T01:00:00Z</time>
      </trkpt>
      <trkpt lat="60.480052" lon="22.253365">
        <ele>25</ele>
        <time>1970-01-01T01:00:00Z</time>
      </trkpt>
      <trkpt lat="60.480121" lon="22.253641">
        <ele>25</ele>
        <time>1970-01-01T01:00:00Z</time>
      </trkpt>
      <trkpt lat="60.480287" lon="22.25355">
        <ele>25</ele>
        <time>1970-01-01T01:00:00Z</time>
      </trkpt>
      <trkpt lat="60.480468" lon="22.253394">
        <ele>25</ele>
        <time>1970-01-01T01:00:00Z</time>
      </trkpt>
      <trkpt lat="60.480605" lon="22.25328">
        <ele>25</ele>
        <time>1970-01-01T01:00:00Z</time>
      </trkpt>
      <trkpt lat="60.480731" lon="22.253208">
        <ele>25</ele>
        <time>1970-01-01T01:00:00Z</time>
      </trkpt>
      <trkpt lat="60.480764" lon="22.25321">
        <ele>25</ele>
        <time>1970-01-01T01:00:00Z</time>
      </trkpt>
      <trkpt lat="60.480917" lon="22.25339">
        <ele>25</ele>
        <time>1970-01-01T01:00:00Z</time>
      </trkpt>
      <trkpt lat="60.480981" lon="22.253457">
        <ele>25</ele>
        <time>1970-01-01T01:00:00Z</time>
      </trkpt>
      <trkpt lat="60.481125" lon="22.25358">
        <ele>25</ele>
        <time>1970-01-01T01:00:00Z</time>
      </trkpt>
      <trkpt lat="60.481304" lon="22.253706">
        <ele>25</ele>
        <time>1970-01-01T01:00:00Z</time>
      </trkpt>
      <trkpt lat="60.481433" lon="22.253891">
        <ele>25</ele>
        <time>1970-01-01T01:00:00Z</time>
      </trkpt>
      <trkpt lat="60.481538" lon="22.254041">
        <ele>25</ele>
        <time>1970-01-01T01:00:00Z</time>
      </trkpt>
      <trkpt lat="60.481635" lon="22.254276">
        <ele>25</ele>
        <time>1970-01-01T01:00:00Z</time>
      </trkpt>
      <trkpt lat="60.481667" lon="22.254392">
        <ele>25</ele>
        <time>1970-01-01T01:00:00Z</time>
      </trkpt>
      <trkpt lat="60.481524" lon="22.25454">
        <ele>25</ele>
        <time>1970-01-01T01:00:00Z</time>
      </trkpt>
      <trkpt lat="60.481445" lon="22.254622">
        <ele>25</ele>
        <time>1970-01-01T01:00:00Z</time>
      </trkpt>
      <trkpt lat="60.481282" lon="22.254816">
        <ele>25</ele>
        <time>1970-01-01T01:00:00Z</time>
      </trkpt>
      <trkpt lat="60.481195" lon="22.25495">
        <ele>25</ele>
        <time>1970-01-01T01:00:00Z</time>
      </trkpt>
      <trkpt lat="60.481032" lon="22.25513">
        <ele>25</ele>
        <time>1970-01-01T01:00:00Z</time>
      </trkpt>
      <trkpt lat="60.480945" lon="22.255204">
        <ele>25</ele>
        <time>1970-01-01T01:00:00Z</time>
      </trkpt>
      <trkpt lat="60.480797" lon="22.255384">
        <ele>25</ele>
        <time>1970-01-01T01:00:00Z</time>
      </trkpt>
      <trkpt lat="60.480768" lon="22.255611">
        <ele>25</ele>
        <time>1970-01-01T01:00:00Z</time>
      </trkpt>
      <trkpt lat="60.480757" lon="22.255797">
        <ele>25</ele>
        <time>1970-01-01T01:00:00Z</time>
      </trkpt>
      <trkpt lat="60.480815" lon="22.256047">
        <ele>25</ele>
        <time>1970-01-01T01:00:00Z</time>
      </trkpt>
      <trkpt lat="60.480954" lon="22.256259">
        <ele>25</ele>
        <time>1970-01-01T01:00:00Z</time>
      </trkpt>
      <trkpt lat="60.481043" lon="22.256391">
        <ele>25</ele>
        <time>1970-01-01T01:00:00Z</time>
      </trkpt>
      <trkpt lat="60.481193" lon="22.256615">
        <ele>25</ele>
        <time>1970-01-01T01:00:00Z</time>
      </trkpt>
      <trkpt lat="60.481264" lon="22.256749">
        <ele>25</ele>
        <time>1970-01-01T01:00:00Z</time>
      </trkpt>
      <trkpt lat="60.481272" lon="22.257043">
        <ele>24.9091</ele>
        <time>1970-01-01T01:00:00Z</time>
      </trkpt>
      <trkpt lat="60.481258" lon="22.257291">
        <ele>24.8182</ele>
        <time>1970-01-01T01:00:00Z</time>
      </trkpt>
      <trkpt lat="60.481229" lon="22.257546">
        <ele>24.7273</ele>
        <time>1970-01-01T01:00:00Z</time>
      </trkpt>
      <trkpt lat="60.481193" lon="22.257789">
        <ele>24.6364</ele>
        <time>1970-01-01T01:00:00Z</time>
      </trkpt>
      <trkpt lat="60.481103" lon="22.258114">
        <ele>24.5455</ele>
        <time>1970-01-01T01:00:00Z</time>
      </trkpt>
      <trkpt lat="60.481084" lon="22.258431">
        <ele>24.4545</ele>
        <time>1970-01-01T01:00:00Z</time>
      </trkpt>
      <trkpt lat="60.481119" lon="22.258698">
        <ele>24.3636</ele>
        <time>1970-01-01T01:00:00Z</time>
      </trkpt>
      <trkpt lat="60.48119" lon="22.259013">
        <ele>24.2727</ele>
        <time>1970-01-01T01:00:00Z</time>
      </trkpt>
      <trkpt lat="60.481188" lon="22.259299">
        <ele>24.1818</ele>
        <time>1970-01-01T01:00:00Z</time>
      </trkpt>
      <trkpt lat="60.481199" lon="22.259573">
        <ele>24.0909</ele>
        <time>1970-01-01T01:00:00Z</time>
      </trkpt>
      <trkpt lat="60.481234" lon="22.259826">
        <ele>24</ele>
        <time>1970-01-01T01:00:00Z</time>
      </trkpt>
      <trkpt lat="60.481299" lon="22.260037">
        <ele>24</ele>
        <time>1970-01-01T01:00:00Z</time>
      </trkpt>
      <trkpt lat="60.48134" lon="22.260258">
        <ele>24</ele>
        <time>1970-01-01T01:00:00Z</time>
      </trkpt>
      <trkpt lat="60.481377" lon="22.260493">
        <ele>24</ele>
        <time>1970-01-01T01:00:00Z</time>
      </trkpt>
      <trkpt lat="60.481352" lon="22.260895">
        <ele>24</ele>
        <time>1970-01-01T01:00:00Z</time>
      </trkpt>
      <trkpt lat="60.481378" lon="22.261259">
        <ele>24</ele>
        <time>1970-01-01T01:00:00Z</time>
      </trkpt>
      <trkpt lat="60.481437" lon="22.261587">
        <ele>24</ele>
        <time>1970-01-01T01:00:00Z</time>
      </trkpt>
      <trkpt lat="60.481534" lon="22.261874">
        <ele>24</ele>
        <time>1970-01-01T01:00:00Z</time>
      </trkpt>
      <trkpt lat="60.48161" lon="22.262098">
        <ele>24</ele>
        <time>1970-01-01T01:00:00Z</time>
      </trkpt>
      <trkpt lat="60.481729" lon="22.262504">
        <ele>24</ele>
        <time>1970-01-01T01:00:00Z</time>
      </trkpt>
      <trkpt lat="60.481821" lon="22.262683">
        <ele>24</ele>
        <time>1970-01-01T01:00:00Z</time>
      </trkpt>
      <trkpt lat="60.48194" lon="22.262912">
        <ele>24</ele>
        <time>1970-01-01T01:00:00Z</time>
      </trkpt>
      <trkpt lat="60.482086" lon="22.263081">
        <ele>24</ele>
        <time>1970-01-01T01:00:00Z</time>
      </trkpt>
      <trkpt lat="60.48221" lon="22.263247">
        <ele>24</ele>
        <time>1970-01-01T01:00:00Z</time>
      </trkpt>
      <trkpt lat="60.48233" lon="22.263451">
        <ele>24</ele>
        <time>1970-01-01T01:00:00Z</time>
      </trkpt>
      <trkpt lat="60.482468" lon="22.26358">
        <ele>24</ele>
        <time>1970-01-01T01:00:00Z</time>
      </trkpt>
      <trkpt lat="60.482604" lon="22.263662">
        <ele>24</ele>
        <time>1970-01-01T01:00:00Z</time>
      </trkpt>
      <trkpt lat="60.482743" lon="22.263735">
        <ele>24.3636</ele>
        <time>1970-01-01T01:00:00Z</time>
      </trkpt>
      <trkpt lat="60.482859" lon="22.263691">
        <ele>24.7273</ele>
        <time>1970-01-01T01:00:00Z</time>
      </trkpt>
      <trkpt lat="60.482965" lon="22.263556">
        <ele>25.0909</ele>
        <time>1970-01-01T01:00:00Z</time>
      </trkpt>
      <trkpt lat="60.483077" lon="22.263415">
        <ele>25.4545</ele>
        <time>1970-01-01T01:00:00Z</time>
      </trkpt>
      <trkpt lat="60.483215" lon="22.263337">
        <ele>25.8182</ele>
        <time>1970-01-01T01:00:00Z</time>
      </trkpt>
      <trkpt lat="60.483436" lon="22.263267">
        <ele>26.1818</ele>
        <time>1970-01-01T01:00:00Z</time>
      </trkpt>
      <trkpt lat="60.483591" lon="22.2632">
        <ele>26.5455</ele>
        <time>1970-01-01T01:00:00Z</time>
      </trkpt>
      <trkpt lat="60.483717" lon="22.26313">
        <ele>26.9091</ele>
        <time>1970-01-01T01:00:00Z</time>
      </trkpt>
      <trkpt lat="60.483876" lon="22.263077">
        <ele>27.2727</ele>
        <time>1970-01-01T01:00:00Z</time>
      </trkpt>
      <trkpt lat="60.483974" lon="22.263034">
        <ele>27.6364</ele>
        <time>1970-01-01T01:00:00Z</time>
      </trkpt>
      <trkpt lat="60.484122" lon="22.262975">
        <ele>28</ele>
        <time>1970-01-01T01:00:00Z</time>
      </trkpt>
      <trkpt lat="60.484179" lon="22.262931">
        <ele>28</ele>
        <time>1970-01-01T01:00:00Z</time>
      </trkpt>
      <trkpt lat="60.484376" lon="22.262886">
        <ele>28</ele>
        <time>1970-01-01T01:00:00Z</time>
      </trkpt>
      <trkpt lat="60.484402" lon="22.262885">
        <ele>28</ele>
        <time>1970-01-01T01:00:00Z</time>
      </trkpt>
      <trkpt lat="60.484559" lon="22.262864">
        <ele>28</ele>
        <time>1970-01-01T01:00:00Z</time>
      </trkpt>
      <trkpt lat="60.484713" lon="22.262837">
        <ele>28</ele>
        <time>1970-01-01T01:00:00Z</time>
      </trkpt>
      <trkpt lat="60.484904" lon="22.262818">
        <ele>28</ele>
        <time>1970-01-01T01:00:00Z</time>
      </trkpt>
      <trkpt lat="60.485009" lon="22.262764">
        <ele>28</ele>
        <time>1970-01-01T01:00:00Z</time>
      </trkpt>
      <trkpt lat="60.48513" lon="22.26268">
        <ele>28</ele>
        <time>1970-01-01T01:00:00Z</time>
      </trkpt>
      <trkpt lat="60.485249" lon="22.262567">
        <ele>28</ele>
        <time>1970-01-01T01:00:00Z</time>
      </trkpt>
      <trkpt lat="60.485373" lon="22.262347">
        <ele>28</ele>
        <time>1970-01-01T01:00:00Z</time>
      </trkpt>
      <trkpt lat="60.485389" lon="22.2623">
        <ele>28</ele>
        <time>1970-01-01T01:00:00Z</time>
      </trkpt>
      <trkpt lat="60.485352" lon="22.262003">
        <ele>28</ele>
        <time>1970-01-01T01:00:00Z</time>
      </trkpt>
      <trkpt lat="60.485347" lon="22.261948">
        <ele>28</ele>
        <time>1970-01-01T01:00:00Z</time>
      </trkpt>
      <trkpt lat="60.485322" lon="22.261607">
        <ele>28</ele>
        <time>1970-01-01T01:00:00Z</time>
      </trkpt>
      <trkpt lat="60.485282" lon="22.261335">
        <ele>28</ele>
        <time>1970-01-01T01:00:00Z</time>
      </trkpt>
      <trkpt lat="60.485255" lon="22.261066">
        <ele>28</ele>
        <time>1970-01-01T01:00:00Z</time>
      </trkpt>
      <trkpt lat="60.485197" lon="22.260791">
        <ele>28</ele>
        <time>1970-01-01T01:00:00Z</time>
      </trkpt>
      <trkpt lat="60.485187" lon="22.260542">
        <ele>28</ele>
        <time>1970-01-01T01:00:00Z</time>
      </trkpt>
      <trkpt lat="60.485168" lon="22.260266">
        <ele>28</ele>
        <time>1970-01-01T01:00:00Z</time>
      </trkpt>
      <trkpt lat="60.48515" lon="22.260021">
        <ele>28</ele>
        <time>1970-01-01T01:00:00Z</time>
      </trkpt>
      <trkpt lat="60.485094" lon="22.259741">
        <ele>28.4545</ele>
        <time>1970-01-01T01:00:00Z</time>
      </trkpt>
      <trkpt lat="60.485012" lon="22.259428">
        <ele>28.9091</ele>
        <time>1970-01-01T01:00:00Z</time>
      </trkpt>
      <trkpt lat="60.484975" lon="22.259166">
        <ele>29.3636</ele>
        <time>1970-01-01T01:00:00Z</time>
      </trkpt>
      <trkpt lat="60.484966" lon="22.258929">
        <ele>29.8182</ele>
        <time>1970-01-01T01:00:00Z</time>
      </trkpt>
      <trkpt lat="60.484972" lon="22.258615">
        <ele>30.2727</ele>
        <time>1970-01-01T01:00:00Z</time>
      </trkpt>
      <trkpt lat="60.484986" lon="22.258408">
        <ele>30.7273</ele>
        <time>1970-01-01T01:00:00Z</time>
      </trkpt>
      <trkpt lat="60.484965" lon="22.258143">
        <ele>31.1818</ele>
        <time>1970-01-01T01:00:00Z</time>
      </trkpt>
      <trkpt lat="60.484934" lon="22.257908">
        <ele>31.6364</ele>
        <time>1970-01-01T01:00:00Z</time>
      </trkpt>
      <trkpt lat="60.48488" lon="22.257683">
        <ele>32.0909</ele>
        <time>1970-01-01T01:00:00Z</time>
      </trkpt>
      <trkpt lat="60.484861" lon="22.257509">
        <ele>32.5455</ele>
        <time>1970-01-01T01:00:00Z</time>
      </trkpt>
      <trkpt lat="60.484812" lon="22.25725">
        <ele>33</ele>
        <time>1970-01-01T01:00:00Z</time>
      </trkpt>
      <trkpt lat="60.484745" lon="22.256899">
        <ele>33</ele>
        <time>1970-01-01T01:00:00Z</time>
      </trkpt>
      <trkpt lat="60.484698" lon="22.256614">
        <ele>33</ele>
        <time>1970-01-01T01:00:00Z</time>
      </trkpt>
      <trkpt lat="60.484631" lon="22.256398">
        <ele>33</ele>
        <time>1970-01-01T01:00:00Z</time>
      </trkpt>
      <trkpt lat="60.484565" lon="22.256201">
        <ele>33</ele>
        <time>1970-01-01T01:00:00Z</time>
      </trkpt>
      <trkpt lat="60.484418" lon="22.255969">
        <ele>33</ele>
        <time>1970-01-01T01:00:00Z</time>
      </trkpt>
      <trkpt lat="60.484247" lon="22.255705">
        <ele>33</ele>
        <time>1970-01-01T01:00:00Z</time>
      </trkpt>
      <trkpt lat="60.484134" lon="22.255541">
        <ele>33</ele>
        <time>1970-01-01T01:00:00Z</time>
      </trkpt>
      <trkpt lat="60.484106" lon="22.255495">
        <ele>33</ele>
        <time>1970-01-01T01:00:00Z</time>
      </trkpt>
      <trkpt lat="60.484039" lon="22.255341">
        <ele>33</ele>
        <time>1970-01-01T01:00:00Z</time>
      </trkpt>
      <trkpt lat="60.483932" lon="22.255206">
        <ele>33</ele>
        <time>1970-01-01T01:00:00Z</time>
      </trkpt>
      <trkpt lat="60.483877" lon="22.255074">
        <ele>33</ele>
        <time>1970-01-01T01:00:00Z</time>
      </trkpt>
      <trkpt lat="60.483792" lon="22.254904">
        <ele>33</ele>
        <time>1970-01-01T01:00:00Z</time>
      </trkpt>
      <trkpt lat="60.483778" lon="22.254853">
        <ele>33</ele>
        <time>1970-01-01T01:00:00Z</time>
      </trkpt>
      <trkpt lat="60.483744" lon="22.254662">
        <ele>33</ele>
        <time>1970-01-01T01:00:00Z</time>
      </trkpt>
      <trkpt lat="60.483725" lon="22.254493">
        <ele>33</ele>
        <time>1970-01-01T01:00:00Z</time>
      </trkpt>
      <trkpt lat="60.483668" lon="22.254217">
        <ele>33</ele>
        <time>1970-01-01T01:00:00Z</time>
      </trkpt>
      <trkpt lat="60.483615" lon="22.254116">
        <ele>32.2727</ele>
        <time>1970-01-01T01:00:00Z</time>
      </trkpt>
      <trkpt lat="60.483569" lon="22.254042">
        <ele>31.5455</ele>
        <time>1970-01-01T01:00:00Z</time>
      </trkpt>
      <trkpt lat="60.483481" lon="22.254045">
        <ele>30.8182</ele>
        <time>1970-01-01T01:00:00Z</time>
      </trkpt>
      <trkpt lat="60.483391" lon="22.254169">
        <ele>30.0909</ele>
        <time>1970-01-01T01:00:00Z</time>
      </trkpt>
      <trkpt lat="60.483355" lon="22.254242">
        <ele>29.3636</ele>
        <time>1970-01-01T01:00:00Z</time>
      </trkpt>
      <trkpt lat="60.483238" lon="22.254439">
        <ele>28.6364</ele>
        <time>1970-01-01T01:00:00Z</time>
      </trkpt>
      <trkpt lat="60.483085" lon="22.25459">
        <ele>27.9091</ele>
        <time>1970-01-01T01:00:00Z</time>
      </trkpt>
      <trkpt lat="60.482969" lon="22.254604">
        <ele>27.1818</ele>
        <time>1970-01-01T01:00:00Z</time>
      </trkpt>
      <trkpt lat="60.482833" lon="22.254711">
        <ele>26.4545</ele>
        <time>1970-01-01T01:00:00Z</time>
      </trkpt>
      <trkpt lat="60.482737" lon="22.254748">
        <ele>25.7273</ele>
        <time>1970-01-01T01:00:00Z</time>
      </trkpt>
      <trkpt lat="60.482594" lon="22.254763">
        <ele>25</ele>
        <time>1970-01-01T01:00:00Z</time>
      </trkpt>
      <trkpt lat="60.482485" lon="22.254752">
        <ele>25</ele>
        <time>1970-01-01T01:00:00Z</time>
      </trkpt>
      <trkpt lat="60.482397" lon="22.254719">
        <ele>25</ele>
        <time>1970-01-01T01:00:00Z</time>
      </trkpt>
      <trkpt lat="60.482346" lon="22.254679">
        <ele>25</ele>
        <time>1970-01-01T01:00:00Z</time>
      </trkpt>
      <trkpt lat="60.482249" lon="22.25464">
        <ele>25</ele>
        <time>1970-01-01T01:00:00Z</time>
      </trkpt>
      <trkpt lat="60.482139" lon="22.254685">
        <ele>25</ele>
        <time>1970-01-01T01:00:00Z</time>
      </trkpt>
      <trkpt lat="60.482088" lon="22.254686">
        <ele>25</ele>
        <time>1970-01-01T01:00:00Z</time>
      </trkpt>
      <trkpt lat="60.481972" lon="22.254651">
        <ele>25</ele>
        <time>1970-01-01T01:00:00Z</time>
      </trkpt>
      <trkpt lat="60.481766" lon="22.254596">
        <ele>25</ele>
        <time>1970-01-01T01:00:00Z</time>
      </trkpt>
      <trkpt lat="60.481628" lon="22.254521">
        <ele>25</ele>
        <time>1970-01-01T01:00:00Z</time>
      </trkpt>
      <trkpt lat="60.481512" lon="22.254294">
        <ele>25</ele>
        <time>1970-01-01T01:00:00Z</time>
      </trkpt>
      <trkpt lat="60.481473" lon="22.254204">
        <ele>25</ele>
        <time>1970-01-01T01:00:00Z</time>
      </trkpt>
      <trkpt lat="60.481366" lon="22.253965">
        <ele>25</ele>
        <time>1970-01-01T01:00:00Z</time>
      </trkpt>
      <trkpt lat="60.481358" lon="22.253902">
        <ele>25</ele>
        <time>1970-01-01T01:00:00Z</time>
      </trkpt>
      <trkpt lat="60.481298" lon="22.253647">
        <ele>25</ele>
        <time>1970-01-01T01:00:00Z</time>
      </trkpt>
      <trkpt lat="60.481352" lon="22.253364">
        <ele>25</ele>
        <time>1970-01-01T01:00:00Z</time>
      </trkpt>
      <trkpt lat="60.48142" lon="22.253201">
        <ele>25</ele>
        <time>1970-01-01T01:00:00Z</time>
      </trkpt>
      <trkpt lat="60.481497" lon="22.252985">
        <ele>25</ele>
        <time>1970-01-01T01:00:00Z</time>
      </trkpt>
      <trkpt lat="60.48161" lon="22.252772">
        <ele>25</ele>
        <time>1970-01-01T01:00:00Z</time>
      </trkpt>
      <trkpt lat="60.481676" lon="22.25252">
        <ele>25</ele>
        <time>1970-01-01T01:00:00Z</time>
      </trkpt>
      <trkpt lat="60.481761" lon="22.252347">
        <ele>25</ele>
        <time>1970-01-01T01:00:00Z</time>
      </trkpt>
      <trkpt lat="60.481904" lon="22.252197">
        <ele>25</ele>
        <time>1970-01-01T01:00:00Z</time>
      </trkpt>
      <trkpt lat="60.481925" lon="22.251849">
        <ele>25</ele>
        <time>1970-01-01T01:00:00Z</time>
      </trkpt>
      <trkpt lat="60.481887" lon="22.251672">
        <ele>25</ele>
        <time>1970-01-01T01:00:00Z</time>
      </trkpt>
      <trkpt lat="60.481834" lon="22.251418">
        <ele>25</ele>
        <time>1970-01-01T01:00:00Z</time>
      </trkpt>
      <trkpt lat="60.481786" lon="22.251218">
        <ele>25.8182</ele>
        <time>1970-01-01T01:00:00Z</time>
      </trkpt>
      <trkpt lat="60.481692" lon="22.250808">
        <ele>26.6364</ele>
        <time>1970-01-01T01:00:00Z</time>
      </trkpt>
      <trkpt lat="60.481657" lon="22.250581">
        <ele>27.4545</ele>
        <time>1970-01-01T01:00:00Z</time>
      </trkpt>
      <trkpt lat="60.481645" lon="22.25046">
        <ele>28.2727</ele>
        <time>1970-01-01T01:00:00Z</time>
      </trkpt>
      <trkpt lat="60.481622" lon="22.250133">
        <ele>29.0909</ele>
        <time>1970-01-01T01:00:00Z</time>
      </trkpt>
      <trkpt lat="60.481624" lon="22.250012">
        <ele>29.9091</ele>
        <time>1970-01-01T01:00:00Z</time>
      </trkpt>
      <trkpt lat="60.481585" lon="22.249753">
        <ele>30.7273</ele>
        <time>1970-01-01T01:00:00Z</time>
      </trkpt>
      <trkpt lat="60.48161" lon="22.249457">
        <ele>31.5455</ele>
        <time>1970-01-01T01:00:00Z</time>
      </trkpt>
      <trkpt lat="60.481623" lon="22.249385">
        <ele>32.3636</ele>
        <time>1970-01-01T01:00:00Z</time>
      </trkpt>
      <trkpt lat="60.481636" lon="22.249158">
        <ele>33.1818</ele>
        <time>1970-01-01T01:00:00Z</time>
      </trkpt>
      <trkpt lat="60.481586" lon="22.249001">
        <ele>34</ele>
        <time>1970-01-01T01:00:00Z</time>
      </trkpt>
      <trkpt lat="60.481585" lon="22.248883">
        <ele>34</ele>
        <time>1970-01-01T01:00:00Z</time>
      </trkpt>
      <trkpt lat="60.481488" lon="22.248709">
        <ele>34</ele>
        <time>1970-01-01T01:00:00Z</time>
      </trkpt>
      <trkpt lat="60.481366" lon="22.248767">
        <ele>34</ele>
        <time>1970-01-01T01:00:00Z</time>
      </trkpt>
      <trkpt lat="60.481206" lon="22.248911">
        <ele>34</ele>
        <time>1970-01-01T01:00:00Z</time>
      </trkpt>
      <trkpt lat="60.481077" lon="22.249029">
        <ele>34</ele>
        <time>1970-01-01T01:00:00Z</time>
      </trkpt>
      <trkpt lat="60.480924" lon="22.249243">
        <ele>34</ele>
        <time>1970-01-01T01:00:00Z</time>
      </trkpt>
      <trkpt lat="60.480815" lon="22.249395">
        <ele>34</ele>
        <time>1970-01-01T01:00:00Z</time>
      </trkpt>
      <trkpt lat="60.480673" lon="22.249567">
        <ele>33.1818</ele>
        <time>1970-01-01T01:00:00Z</time>
      </trkpt>
      <trkpt lat="60.480556" lon="22.249698">
        <ele>32.3636</ele>
        <time>1970-01-01T01:00:00Z</time>
      </trkpt>
      <trkpt lat="60.480454" lon="22.249806">
        <ele>31.5455</ele>
        <time>1970-01-01T01:00:00Z</time>
      </trkpt>
      <trkpt lat="60.480337" lon="22.249923">
        <ele>30.7273</ele>
        <time>1970-01-01T01:00:00Z</time>
      </trkpt>
      <trkpt lat="60.480259" lon="22.249985">
        <ele>29.9091</ele>
        <time>1970-01-01T01:00:00Z</time>
      </trkpt>
      <trkpt lat="60.480131" lon="22.250135">
        <ele>29.0909</ele>
        <time>1970-01-01T01:00:00Z</time>
      </trkpt>
      <trkpt lat="60.48001" lon="22.25023">
        <ele>28.2727</ele>
        <time>1970-01-01T01:00:00Z</time>
      </trkpt>
      <trkpt lat="60.479892" lon="22.25035">
        <ele>27.4545</ele>
        <time>1970-01-01T01:00:00Z</time>
      </trkpt>
      <trkpt lat="60.479798" lon="22.250418">
        <ele>26.6364</ele>
        <time>1970-01-01T01:00:00Z</time>
      </trkpt>
      <trkpt lat="60.47975" lon="22.250492">
        <ele>25.8182</ele>
        <time>1970-01-01T01:00:00Z</time>
      </trkpt>
      <trkpt lat="60.479757" lon="22.250765">
        <ele>25</ele>
        <time>1970-01-01T01:00:00Z</time>
      </trkpt>
      <trkpt lat="60.479769" lon="22.251064">
        <ele>25</ele>
        <time>1970-01-01T01:00:00Z</time>
      </trkpt>
      <trkpt lat="60.479735" lon="22.251364">
        <ele>25</ele>
        <time>1970-01-01T01:00:00Z</time>
      </trkpt>
      <trkpt lat="60.479748" lon="22.25161">
        <ele>25</ele>
        <time>1970-01-01T01:00:00Z</time>
      </trkpt>
      <trkpt lat="60.479772" lon="22.251909">
        <ele>25</ele>
        <time>1970-01-01T01:00:00Z</time>
      </trkpt>
      <trkpt lat="60.479867" lon="22.252211">
        <ele>25</ele>
        <time>1970-01-01T01:00:00Z</time>
      </trkpt>
      <trkpt lat="60.479936" lon="22.252468">
        <ele>25</ele>
        <time>1970-01-01T01:00:00Z</time>
      </trkpt>
      <trkpt lat="60.480028" lon="22.252856">
        <ele>25</ele>
        <time>1970-01-01T01:00:00Z</time>
      </trkpt>
      <trkpt lat="60.480078" lon="22.253187">
        <ele>25</ele>
        <time>1970-01-01T01:00:00Z</time>
      </trkpt>
      <trkpt lat="60.480129" lon="22.25351">
        <ele>25</ele>
        <time>1970-01-01T01:00:00Z</time>
      </trkpt>
      <trkpt lat="60.480154" lon="22.253631">
        <ele>25</ele>
        <time>1970-01-01T01:00:00Z</time>
      </trkpt>
      <trkpt lat="60.480139" lon="22.253648">
        <ele>25</ele>
        <time>1970-01-01T01:00:00Z</time>
      </trkpt>
      <trkpt lat="60.479972" lon="22.253859">
        <ele>25</ele>
        <time>1970-01-01T01:00:00Z</time>
      </trkpt>
      <trkpt lat="60.479861" lon="22.254034">
        <ele>25</ele>
        <time>1970-01-01T01:00:00Z</time>
      </trkpt>
      <trkpt lat="60.479696" lon="22.254163">
        <ele>25</ele>
        <time>1970-01-01T01:00:00Z</time>
      </trkpt>
      <trkpt lat="60.479595" lon="22.254224">
        <ele>25</ele>
        <time>1970-01-01T01:00:00Z</time>
      </trkpt>
      <trkpt lat="60.479422" lon="22.254378">
        <ele>25</ele>
        <time>1970-01-01T01:00:00Z</time>
      </trkpt>
      <trkpt lat="60.47931" lon="22.25448">
        <ele>25</ele>
        <time>1970-01-01T01:00:00Z</time>
      </trkpt>
      <trkpt lat="60.479215" lon="22.254577">
        <ele>25</ele>
        <time>1970-01-01T01:00:00Z</time>
      </trkpt>
      <trkpt lat="60.479136" lon="22.254656">
        <ele>25</ele>
        <time>1970-01-01T01:00:00Z</time>
      </trkpt>
      <trkpt lat="60.479004" lon="22.254733">
        <ele>25</ele>
        <time>1970-01-01T01:00:00Z</time>
      </trkpt>
      <trkpt lat="60.479031" lon="22.254899">
        <ele>25</ele>
        <time>1970-01-01T01:00:00Z</time>
      </trkpt>
      <trkpt lat="60.479118" lon="22.255302">
        <ele>25</ele>
        <time>1970-01-01T01:00:00Z</time>
      </trkpt>
      <trkpt lat="60.479185" lon="22.255584">
        <ele>25</ele>
        <time>1970-01-01T01:00:00Z</time>
      </trkpt>
      <trkpt lat="60.479265" lon="22.25585">
        <ele>25</ele>
        <time>1970-01-01T01:00:00Z</time>
      </trkpt>
      <trkpt lat="60.479333" lon="22.256096">
        <ele>25</ele>
        <time>1970-01-01T01:00:00Z</time>
      </trkpt>
      <trkpt lat="60.479356" lon="22.256276">
        <ele>25</ele>
        <time>1970-01-01T01:00:00Z</time>
      </trkpt>
      <trkpt lat="60.479385" lon="22.25653">
        <ele>25</ele>
        <time>1970-01-01T01:00:00Z</time>
      </trkpt>
      <trkpt lat="60.479397" lon="22.256796">
        <ele>25</ele>
        <time>1970-01-01T01:00:00Z</time>
      </trkpt>
      <trkpt lat="60.47943" lon="22.257182">
        <ele>25</ele>
        <time>1970-01-01T01:00:00Z</time>
      </trkpt>
      <trkpt lat="60.479482" lon="22.257459">
        <ele>24.9091</ele>
        <time>1970-01-01T01:00:00Z</time>
      </trkpt>
      <trkpt lat="60.479527" lon="22.257614">
        <ele>24.8182</ele>
        <time>1970-01-01T01:00:00Z</time>
      </trkpt>
      <trkpt lat="60.479744" lon="22.257935">
        <ele>24.7273</ele>
        <time>1970-01-01T01:00:00Z</time>
      </trkpt>
      <trkpt lat="60.479806" lon="22.258135">
        <ele>24.6364</ele>
        <time>1970-01-01T01:00:00Z</time>
      </trkpt>
      <trkpt lat="60.479826" lon="22.258193">
        <ele>24.5455</ele>
        <time>1970-01-01T01:00:00Z</time>
      </trkpt>
      <trkpt lat="60.479824" lon="22.258608">
        <ele>24.4545</ele>
        <time>1970-01-01T01:00:00Z</time>
      </trkpt>
      <trkpt lat="60.479743" lon="22.258843">
        <ele>24.3636</ele>
        <time>1970-01-01T01:00:00Z</time>
      </trkpt>
      <trkpt lat="60.47971" lon="22.259023">
        <ele>24.2727</ele>
        <time>1970-01-01T01:00:00Z</time>
      </trkpt>
      <trkpt lat="60.479678" lon="22.259367">
        <ele>24.1818</ele>
        <time>1970-01-01T01:00:00Z</time>
      </trkpt>
      <trkpt lat="60.479647" lon="22.259571">
        <ele>24.0909</ele>
        <time>1970-01-01T01:00:00Z</time>
      </trkpt>
      <trkpt lat="60.4795" lon="22.260152">
        <ele>24</ele>
        <time>1970-01-01T01:00:00Z</time>
      </trkpt>
      <trkpt lat="60.479464" lon="22.260262">
        <ele>24</ele>
        <time>1970-01-01T01:00:00Z</time>
      </trkpt>
      <trkpt lat="60.479424" lon="22.260483">
        <ele>24</ele>
        <time>1970-01-01T01:00:00Z</time>
      </trkpt>
      <trkpt lat="60.479416" lon="22.260524">
        <ele>24</ele>
        <time>1970-01-01T01:00:00Z</time>
      </trkpt>
      <trkpt lat="60.479392" lon="22.260631">
        <ele>24</ele>
        <time>1970-01-01T01:00:00Z</time>
      </trkpt>
      <trkpt lat="60.479307" lon="22.260817">
        <ele>24</ele>
        <time>1970-01-01T01:00:00Z</time>
      </trkpt>
      <trkpt lat="60.47912" lon="22.261039">
        <ele>24</ele>
        <time>1970-01-01T01:00:00Z</time>
      </trkpt>
      <trkpt lat="60.479079" lon="22.26127">
        <ele>24</ele>
        <time>1970-01-01T01:00:00Z</time>
      </trkpt>
      <trkpt lat="60.479089" lon="22.261573">
        <ele>24</ele>
        <time>1970-01-01T01:00:00Z</time>
      </trkpt>
      <trkpt lat="60.479047" lon="22.261841">
        <ele>24</ele>
        <time>1970-01-01T01:00:00Z</time>
      </trkpt>
      <trkpt lat="60.478977" lon="22.26222">
        <ele>24</ele>
        <time>1970-01-01T01:00:00Z</time>
      </trkpt>
      <trkpt lat="60.478938" lon="22.262481">
        <ele>24</ele>
        <time>1970-01-01T01:00:00Z</time>
      </trkpt>
      <trkpt lat="60.478874" lon="22.262794">
        <ele>24</ele>
        <time>1970-01-01T01:00:00Z</time>
      </trkpt>
      <trkpt lat="60.478833" lon="22.263049">
        <ele>24</ele>
        <time>1970-01-01T01:00:00Z</time>
      </trkpt>
      <trkpt lat="60.478753" lon="22.263422">
        <ele>24</ele>
        <time>1970-01-01T01:00:00Z</time>
      </trkpt>
      <trkpt lat="60.478696" lon="22.263738">
        <ele>24</ele>
        <time>1970-01-01T01:00:00Z</time>
      </trkpt>
      <trkpt lat="60.478656" lon="22.264006">
        <ele>24</ele>
        <time>1970-01-01T01:00:00Z</time>
      </trkpt>
      <trkpt lat="60.478599" lon="22.264347">
        <ele>24</ele>
        <time>1970-01-01T01:00:00Z</time>
      </trkpt>
      <trkpt lat="60.478518" lon="22.264761">
        <ele>24</ele>
        <time>1970-01-01T01:00:00Z</time>
      </trkpt>
      <trkpt lat="60.478464" lon="22.265033">
        <ele>24</ele>
        <time>1970-01-01T01:00:00Z</time>
      </trkpt>
      <trkpt lat="60.478383" lon="22.265384">
        <ele>24</ele>
        <time>1970-01-01T01:00:00Z</time>
      </trkpt>
      <trkpt lat="60.478304" lon="22.265738">
        <ele>24</ele>
        <time>1970-01-01T01:00:00Z</time>
      </trkpt>
      <trkpt lat="60.478246" lon="22.26601">
        <ele>24</ele>
        <time>1970-01-01T01:00:00Z</time>
      </trkpt>
      <trkpt lat="60.478211" lon="22.266209">
        <ele>24</ele>
        <time>1970-01-01T01:00:00Z</time>
      </trkpt>
    </trkseg>
  </trk>
</gpx>